Wetterdaten: Dienstag, 19.10.2021
Datum Zeit Temp. Aussen Temp. o. S. Temp +5cm Feuchte Auss Luftdruck Regen Sonnenschein Regendauer Solar Windben Empfang
19.10.2021 00:00 10,8 C 10,0 C 8,9 C 89 % 1021,2 hPa 0,0 l/m 0 min 0 min 0 W/m 16,1 km/h (3 Bft) 93,62 %
19.10.2021 00:02 10,8 C 10,0 C 8,9 C 89 % 1021,2 hPa 0,0 l/m 0 min 0 min 0 W/m 9,7 km/h (2 Bft) 92,68 %
19.10.2021 00:04 10,8 C 10,0 C 8,9 C 89 % 1021,1 hPa 0,0 l/m 0 min 0 min 0 W/m 12,9 km/h (3 Bft) 93,62 %
19.10.2021 00:08 10,8 C 10,0 C 8,9 C 89 % 1021,1 hPa 0,0 l/m 0 min 0 min 0 W/m 19,3 km/h (3 Bft) 94,68 %
19.10.2021 00:10 10,8 C 10,0 C 8,9 C 89 % 1021,0 hPa 0,0 l/m 0 min 0 min 0 W/m 6,4 km/h (2 Bft) 95,74 %
19.10.2021 00:12 10,8 C 10,0 C 8,9 C 89 % 1021,0 hPa 0,0 l/m 0 min 0 min 0 W/m 6,4 km/h (2 Bft) 93,62 %
19.10.2021 00:14 10,8 C 10,0 C 8,9 C 89 % 1021,0 hPa 0,0 l/m 0 min 0 min 0 W/m 12,9 km/h (3 Bft) 95,74 %
19.10.2021 00:16 10,8 C 10,0 C 8,9 C 89 % 1021,0 hPa 0,0 l/m 0 min 0 min 0 W/m 9,7 km/h (2 Bft) 95,74 %
19.10.2021 00:18 10,8 C 10,0 C 8,9 C 89 % 1021,0 hPa 0,0 l/m 0 min 0 min 0 W/m 9,7 km/h (2 Bft) 93,48 %
19.10.2021 00:20 10,7 C 10,0 C 8,9 C 89 % 1021,0 hPa 0,0 l/m 0 min 0 min 0 W/m 6,4 km/h (2 Bft) 95,74 %
19.10.2021 00:22 10,8 C 10,0 C 8,9 C 89 % 1021,0 hPa 0,0 l/m 0 min 0 min 0 W/m 16,1 km/h (3 Bft) 91,49 %
19.10.2021 00:24 10,7 C 10,0 C 8,9 C 89 % 1021,0 hPa 0,0 l/m 0 min 0 min 0 W/m 6,4 km/h (2 Bft) 95,74 %
19.10.2021 00:26 10,7 C 10,0 C 8,9 C 89 % 1020,9 hPa 0,0 l/m 0 min 0 min 0 W/m 12,9 km/h (3 Bft) 97,87 %
19.10.2021 00:28 10,7 C 10,0 C 8,9 C 89 % 1020,8 hPa 0,0 l/m 0 min 0 min 0 W/m 9,7 km/h (2 Bft) 97,87 %
19.10.2021 00:30 10,7 C 10,0 C 8,9 C 89 % 1020,8 hPa 0,0 l/m 0 min 0 min 0 W/m 12,9 km/h (3 Bft) 95,65 %
19.10.2021 00:35 10,7 C 10,0 C 8,9 C 89 % 1020,7 hPa 0,0 l/m 0 min 0 min 0 W/m 16,1 km/h (3 Bft) 100,00 %
19.10.2021 00:36 10,7 C 10,0 C 8,9 C 89 % 1020,7 hPa 0,0 l/m 0 min 0 min 0 W/m 6,4 km/h (2 Bft) 100,00 %
19.10.2021 00:38 10,8 C 10,0 C 8,9 C 89 % 1020,6 hPa 0,0 l/m 0 min 0 min 0 W/m 12,9 km/h (3 Bft) 100,00 %
19.10.2021 00:40 10,7 C 10,0 C 8,9 C 90 % 1020,7 hPa 0,0 l/m 0 min 0 min 0 W/m 12,9 km/h (3 Bft) 100,00 %
19.10.2021 00:42 10,8 C 10,0 C 8,9 C 90 % 1020,6 hPa 0,0 l/m 0 min 0 min 0 W/m 16,1 km/h (3 Bft) 100,00 %
19.10.2021 00:44 10,8 C 10,0 C 8,9 C 90 % 1020,6 hPa 0,0 l/m 0 min 0 min 0 W/m 12,9 km/h (3 Bft) 100,00 %
19.10.2021 00:46 10,8 C 10,0 C 8,9 C 90 % 1020,6 hPa 0,0 l/m 0 min 0 min 0 W/m 16,1 km/h (3 Bft) 100,00 %
19.10.2021 00:48 10,8 C 10,0 C 8,9 C 90 % 1020,5 hPa 0,0 l/m 0 min 0 min 0 W/m 19,3 km/h (3 Bft) 100,00 %
19.10.2021 00:50 10,8 C 10,0 C 8,9 C 90 % 1020,6 hPa 0,0 l/m 0 min 0 min 0 W/m 12,9 km/h (3 Bft) 100,00 %
19.10.2021 00:52 10,8 C 10,0 C 8,9 C 90 % 1020,6 hPa 0,0 l/m 0 min 0 min 0 W/m 12,9 km/h (3 Bft) 100,00 %
19.10.2021 00:54 10,8 C 10,0 C 8,9 C 90 % 1020,6 hPa 0,0 l/m 0 min 0 min 0 W/m 12,9 km/h (3 Bft) 100,00 %
19.10.2021 00:56 10,8 C 10,0 C 8,9 C 90 % 1020,6 hPa 0,0 l/m 0 min 0 min 0 W/m 12,9 km/h (3 Bft) 100,00 %
19.10.2021 00:58 10,8 C 10,0 C 8,9 C 90 % 1020,6 hPa 0,0 l/m 0 min 0 min 0 W/m 6,4 km/h (2 Bft) 97,87 %
19.10.2021 01:00 10,8 C 10,0 C 8,9 C 90 % 1020,6 hPa 0,0 l/m 0 min 0 min 0 W/m 16,1 km/h (3 Bft) 100,00 %
19.10.2021 01:02 10,8 C 10,0 C 8,9 C 90 % 1020,6 hPa 0,0 l/m 0 min 0 min 0 W/m 12,9 km/h (3 Bft) 100,00 %
19.10.2021 01:04 10,8 C 10,0 C 8,9 C 90 % 1020,6 hPa 0,0 l/m 0 min 0 min 0 W/m 12,9 km/h (3 Bft) 100,00 %
19.10.2021 01:06 10,8 C 10,0 C 8,9 C 90 % 1020,6 hPa 0,0 l/m 0 min 0 min 0 W/m 16,1 km/h (3 Bft) 100,00 %
19.10.2021 01:08 10,8 C 10,0 C 8,9 C 90 % 1020,7 hPa 0,0 l/m 0 min 0 min 0 W/m 12,9 km/h (3 Bft) 97,87 %
19.10.2021 01:10 10,8 C 10,0 C 8,9 C 90 % 1020,6 hPa 0,0 l/m 0 min 0 min 0 W/m 12,9 km/h (3 Bft) 100,00 %
19.10.2021 01:12 10,8 C 10,0 C 8,9 C 90 % 1020,7 hPa 0,0 l/m 0 min 0 min 0 W/m 16,1 km/h (3 Bft) 100,00 %
19.10.2021 01:14 10,8 C 10,0 C 8,9 C 90 % 1020,7 hPa 0,0 l/m 0 min 0 min 0 W/m 16,1 km/h (3 Bft) 100,00 %
19.10.2021 01:16 10,8 C 10,0 C 8,9 C 90 % 1020,6 hPa 0,0 l/m 0 min 0 min 0 W/m 12,9 km/h (3 Bft) 100,00 %
19.10.2021 01:18 10,8 C 10,0 C 8,9 C 90 % 1020,6 hPa 0,0 l/m 0 min 0 min 0 W/m 12,9 km/h (3 Bft) 97,87 %
19.10.2021 01:20 10,8 C 10,0 C 8,9 C 90 % 1020,6 hPa 0,0 l/m 0 min 0 min 0 W/m 16,1 km/h (3 Bft) 100,00 %
19.10.2021 01:22 10,8 C 10,0 C 8,9 C 90 % 1020,6 hPa 0,0 l/m 0 min 0 min 0 W/m 16,1 km/h (3 Bft) 97,87 %
19.10.2021 01:24 10,8 C 10,0 C 8,9 C 90 % 1020,6 hPa 0,0 l/m 0 min 0 min 0 W/m 12,9 km/h (3 Bft) 97,87 %
19.10.2021 01:26 10,8 C 10,0 C 8,9 C 90 % 1020,5 hPa 0,0 l/m 0 min 0 min 0 W/m 12,9 km/h (3 Bft) 100,00 %
19.10.2021 01:28 10,8 C 10,0 C 8,9 C 90 % 1020,5 hPa 0,0 l/m 0 min 0 min 0 W/m 16,1 km/h (3 Bft) 100,00 %
19.10.2021 01:30 10,8 C 10,0 C 8,9 C 90 % 1020,5 hPa 0,0 l/m 0 min 0 min 0 W/m 16,1 km/h (3 Bft) 100,00 %
19.10.2021 01:32 10,8 C 10,0 C 8,9 C 90 % 1020,6 hPa 0,0 l/m 0 min 0 min 0 W/m 12,9 km/h (3 Bft) 95,74 %
19.10.2021 01:34 10,8 C 10,0 C 8,9 C 90 % 1020,6 hPa 0,0 l/m 0 min 0 min 0 W/m 12,9 km/h (3 Bft) 100,00 %
19.10.2021 01:36 10,8 C 10,0 C 8,9 C 90 % 1020,5 hPa 0,0 l/m 0 min 0 min 0 W/m 12,9 km/h (3 Bft) 100,00 %
19.10.2021 01:38 10,8 C 10,0 C 8,9 C 90 % 1020,6 hPa 0,0 l/m 0 min 0 min 0 W/m 16,1 km/h (3 Bft) 97,87 %
19.10.2021 01:40 10,8 C 10,0 C 8,9 C 90 % 1020,5 hPa 0,0 l/m 0 min 0 min 0 W/m 12,9 km/h (3 Bft) 97,83 %
19.10.2021 01:42 10,8 C 10,0 C 8,9 C 90 % 1020,5 hPa 0,0 l/m 0 min 0 min 0 W/m 6,4 km/h (2 Bft) 100,00 %
19.10.2021 01:44 10,8 C 10,0 C 8,9 C 90 % 1020,6 hPa 0,0 l/m 0 min 0 min 0 W/m 12,9 km/h (3 Bft) 100,00 %
19.10.2021 01:46 10,8 C 10,6 C 8,9 C 90 % 1020,6 hPa 0,0 l/m 0 min 0 min 0 W/m 6,4 km/h (2 Bft) 100,00 %
19.10.2021 01:48 10,8 C 10,6 C 8,9 C 90 % 1020,6 hPa 0,0 l/m 0 min 0 min 0 W/m 12,9 km/h (3 Bft) 97,87 %
19.10.2021 01:50 10,9 C 10,6 C 8,9 C 90 % 1020,6 hPa 0,0 l/m 0 min 0 min 0 W/m 9,7 km/h (2 Bft) 97,87 %
19.10.2021 01:52 10,9 C 10,6 C 8,9 C 90 % 1020,7 hPa 0,0 l/m 0 min 0 min 0 W/m 6,4 km/h (2 Bft) 47,50 %
19.10.2021 01:54 10,9 C 10,6 C 8,9 C 90 % 1020,7 hPa 0,0 l/m 0 min 0 min 0 W/m 6,4 km/h (2 Bft) 97,87 %
19.10.2021 01:56 10,9 C 10,6 C 8,9 C 90 % 1020,6 hPa 0,0 l/m 0 min 0 min 0 W/m 12,9 km/h (3 Bft) 97,87 %
19.10.2021 01:58 10,9 C 10,6 C 8,9 C 90 % 1020,6 hPa 0,0 l/m 0 min 0 min 0 W/m 12,9 km/h (3 Bft) 97,87 %
19.10.2021 02:00 10,9 C 10,6 C 9,5 C 90 % 1020,4 hPa 0,0 l/m 0 min 0 min 0 W/m 12,9 km/h (3 Bft) 95,74 %
19.10.2021 02:02 10,9 C 10,6 C 9,5 C 90 % 1020,4 hPa 0,0 l/m 0 min 0 min 0 W/m 9,7 km/h (2 Bft) 95,74 %
19.10.2021 02:04 10,9 C 10,6 C 9,5 C 90 % 1020,4 hPa 0,0 l/m 0 min 0 min 0 W/m 12,9 km/h (3 Bft) 97,83 %
19.10.2021 02:06 10,9 C 10,6 C 9,5 C 90 % 1020,4 hPa 0,0 l/m 0 min 0 min 0 W/m 6,4 km/h (2 Bft) 97,87 %
19.10.2021 02:08 10,9 C 10,6 C 9,5 C 90 % 1020,4 hPa 0,0 l/m 0 min 0 min 0 W/m 12,9 km/h (3 Bft) 93,62 %
19.10.2021 02:10 11,0 C 10,6 C 9,5 C 90 % 1020,4 hPa 0,0 l/m 0 min 0 min 0 W/m 9,7 km/h (2 Bft) 97,87 %
19.10.2021 02:12 11,0 C 10,6 C 9,5 C 90 % 1020,4 hPa 0,0 l/m 0 min 0 min 0 W/m 12,9 km/h (3 Bft) 95,74 %
19.10.2021 02:14 11,0 C 10,6 C 9,5 C 90 % 1020,4 hPa 0,0 l/m 0 min 0 min 0 W/m 12,9 km/h (3 Bft) 95,74 %
19.10.2021 02:16 11,0 C 10,6 C 9,5 C 90 % 1020,4 hPa 0,0 l/m 0 min 0 min 0 W/m 12,9 km/h (3 Bft) 95,65 %
19.10.2021 02:18 11,0 C 10,6 C 9,5 C 90 % 1020,4 hPa 0,0 l/m 0 min 0 min 0 W/m 6,4 km/h (2 Bft) 93,62 %
19.10.2021 02:20 11,0 C 10,6 C 9,5 C 90 % 1020,4 hPa 0,0 l/m 0 min 0 min 0 W/m 12,9 km/h (3 Bft) 95,74 %
19.10.2021 02:22 11,0 C 10,6 C 9,5 C 90 % 1020,3 hPa 0,0 l/m 0 min 0 min 0 W/m 6,4 km/h (2 Bft) 100,00 %
19.10.2021 02:24 11,0 C 10,6 C 9,5 C 90 % 1020,3 hPa 0,0 l/m 0 min 0 min 0 W/m 12,9 km/h (3 Bft) 95,74 %
19.10.2021 02:26 11,0 C 10,6 C 9,5 C 90 % 1020,3 hPa 0,0 l/m 0 min 0 min 0 W/m 12,9 km/h (3 Bft) 97,87 %
19.10.2021 02:28 11,0 C 10,6 C 9,5 C 90 % 1020,3 hPa 0,0 l/m 0 min 0 min 0 W/m 16,1 km/h (3 Bft) 95,65 %
19.10.2021 02:30 11,0 C 10,6 C 9,5 C 90 % 1020,3 hPa 0,0 l/m 0 min 0 min 0 W/m 12,9 km/h (3 Bft) 95,74 %
19.10.2021 02:32 11,0 C 10,6 C 9,5 C 90 % 1020,3 hPa 0,0 l/m 0 min 0 min 0 W/m 9,7 km/h (2 Bft) 97,87 %
19.10.2021 02:34 11,0 C 10,6 C 9,5 C 90 % 1020,2 hPa 0,0 l/m 0 min 0 min 0 W/m 16,1 km/h (3 Bft) 95,74 %
19.10.2021 02:36 11,0 C 10,6 C 9,5 C 90 % 1020,2 hPa 0,0 l/m 0 min 0 min 0 W/m 12,9 km/h (3 Bft) 93,62 %
19.10.2021 02:38 11,1 C 10,6 C 9,5 C 90 % 1020,1 hPa 0,0 l/m 0 min 0 min 0 W/m 12,9 km/h (3 Bft) 95,65 %
19.10.2021 02:40 11,1 C 10,6 C 9,5 C 90 % 1020,2 hPa 0,0 l/m 0 min 0 min 0 W/m 12,9 km/h (3 Bft) 95,74 %
19.10.2021 02:42 11,1 C 10,6 C 9,5 C 90 % 1020,2 hPa 0,0 l/m 0 min 0 min 0 W/m 12,9 km/h (3 Bft) 91,49 %
19.10.2021 02:44 11,1 C 10,6 C 9,5 C 90 % 1020,2 hPa 0,0 l/m 0 min 0 min 0 W/m 12,9 km/h (3 Bft) 95,74 %
19.10.2021 02:46 11,1 C 10,6 C 9,5 C 90 % 1020,2 hPa 0,0 l/m 0 min 0 min 0 W/m 9,7 km/h (2 Bft) 95,74 %
19.10.2021 02:48 11,1 C 10,6 C 9,5 C 90 % 1020,2 hPa 0,0 l/m 0 min 0 min 0 W/m 12,9 km/h (3 Bft) 95,74 %
19.10.2021 02:50 11,1 C 10,6 C 9,5 C 90 % 1020,3 hPa 0,0 l/m 0 min 0 min 0 W/m 6,4 km/h (2 Bft) 95,65 %
19.10.2021 02:52 11,1 C 10,6 C 9,5 C 90 % 1020,3 hPa 0,0 l/m 0 min 0 min 0 W/m 9,7 km/h (2 Bft) 95,74 %
19.10.2021 02:54 11,1 C 10,6 C 9,5 C 90 % 1020,3 hPa 0,0 l/m 0 min 0 min 0 W/m 9,7 km/h (2 Bft) 97,87 %
19.10.2021 02:56 11,1 C 10,6 C 9,5 C 90 % 1020,4 hPa 0,0 l/m 0 min 0 min 0 W/m 6,4 km/h (2 Bft) 95,74 %
19.10.2021 02:58 11,1 C 10,6 C 9,5 C 90 % 1020,4 hPa 0,0 l/m 0 min 0 min 0 W/m 6,4 km/h (2 Bft) 95,74 %
19.10.2021 03:00 11,1 C 10,6 C 9,5 C 90 % 1020,4 hPa 0,0 l/m 0 min 2 min 0 W/m 3,2 km/h (1 Bft) 97,87 %
19.10.2021 03:02 11,1 C 10,6 C 9,5 C 90 % 1020,4 hPa 0,0 l/m 0 min 0 min 0 W/m 12,9 km/h (3 Bft) 95,65 %
19.10.2021 03:04 11,1 C 10,6 C 8,9 C 90 % 1020,5 hPa 0,0 l/m 0 min 0 min 0 W/m 12,9 km/h (3 Bft) 95,74 %
19.10.2021 03:06 11,1 C 10,6 C 8,9 C 90 % 1020,5 hPa 0,0 l/m 0 min 2 min 0 W/m 6,4 km/h (2 Bft) 97,87 %
19.10.2021 03:08 11,1 C 10,6 C 8,9 C 90 % 1020,4 hPa 0,0 l/m 0 min 2 min 0 W/m 6,4 km/h (2 Bft) 97,87 %
19.10.2021 03:10 11,1 C 10,6 C 8,9 C 91 % 1020,3 hPa 0,0 l/m 0 min 2 min 0 W/m 12,9 km/h (3 Bft) 97,87 %
19.10.2021 03:12 11,1 C 10,6 C 8,9 C 91 % 1020,4 hPa 0,0 l/m 0 min 2 min 0 W/m 12,9 km/h (3 Bft) 95,74 %
19.10.2021 03:14 11,1 C 10,0 C 8,9 C 91 % 1020,3 hPa 0,0 l/m 0 min 2 min 0 W/m 6,4 km/h (2 Bft) 97,83 %
19.10.2021 03:16 11,1 C 10,0 C 8,9 C 91 % 1020,3 hPa 0,0 l/m 0 min 0 min 0 W/m 6,4 km/h (2 Bft) 97,87 %
19.10.2021 03:18 11,0 C 10,0 C 8,9 C 91 % 1020,4 hPa 0,0 l/m 0 min 2 min 0 W/m 12,9 km/h (3 Bft) 97,87 %
19.10.2021 03:20 11,1 C 10,0 C 8,9 C 91 % 1020,3 hPa 0,0 l/m 0 min 2 min 0 W/m 6,4 km/h (2 Bft) 100,00 %
19.10.2021 03:22 11,0 C 10,0 C 8,9 C 91 % 1020,3 hPa 0,0 l/m 0 min 0 min 0 W/m 12,9 km/h (3 Bft) 100,00 %
19.10.2021 03:24 11,0 C 10,0 C 8,9 C 91 % 1020,3 hPa 0,0 l/m 0 min 0 min 0 W/m 12,9 km/h (3 Bft) 100,00 %
19.10.2021 03:26 11,0 C 10,0 C 8,9 C 91 % 1020,2 hPa 0,0 l/m 0 min 0 min 0 W/m 6,4 km/h (2 Bft) 97,83 %
19.10.2021 03:28 11,0 C 10,0 C 8,9 C 91 % 1020,2 hPa 0,0 l/m 0 min 2 min 0 W/m 6,4 km/h (2 Bft) 100,00 %
19.10.2021 03:30 11,0 C 10,0 C 8,9 C 91 % 1020,2 hPa 0,0 l/m 0 min 2 min 0 W/m 6,4 km/h (2 Bft) 97,87 %
19.10.2021 03:32 10,9 C 10,0 C 8,9 C 92 % 1020,2 hPa 0,0 l/m 0 min 2 min 0 W/m 6,4 km/h (2 Bft) 97,87 %
19.10.2021 03:34 10,9 C 10,0 C 8,9 C 92 % 1020,2 hPa 0,0 l/m 0 min 2 min 0 W/m 16,1 km/h (3 Bft) 100,00 %
19.10.2021 03:36 10,9 C 10,0 C 8,9 C 92 % 1020,2 hPa 0,0 l/m 0 min 2 min 0 W/m 6,4 km/h (2 Bft) 100,00 %
19.10.2021 03:38 10,9 C 10,0 C 8,9 C 92 % 1020,1 hPa 0,0 l/m 0 min 2 min 0 W/m 6,4 km/h (2 Bft) 100,00 %
19.10.2021 03:40 10,9 C 10,0 C 8,9 C 92 % 1020,0 hPa 0,0 l/m 0 min 0 min 0 W/m 16,1 km/h (3 Bft) 97,87 %
19.10.2021 03:42 10,9 C 10,0 C 8,9 C 92 % 1019,9 hPa 0,0 l/m 0 min 0 min 0 W/m 9,7 km/h (2 Bft) 100,00 %
19.10.2021 03:44 10,9 C 10,0 C 8,9 C 92 % 1019,9 hPa 0,0 l/m 0 min 0 min 0 W/m 6,4 km/h (2 Bft) 97,87 %
19.10.2021 03:46 10,9 C 10,0 C 8,9 C 93 % 1019,9 hPa 0,0 l/m 0 min 0 min 0 W/m 12,9 km/h (3 Bft) 97,87 %
19.10.2021 03:48 10,9 C 10,0 C 8,9 C 93 % 1019,9 hPa 0,0 l/m 0 min 0 min 0 W/m 12,9 km/h (3 Bft) 97,83 %
19.10.2021 03:50 10,9 C 10,0 C 8,9 C 93 % 1019,9 hPa 0,0 l/m 0 min 0 min 0 W/m 12,9 km/h (3 Bft) 97,87 %
19.10.2021 03:52 10,9 C 10,0 C 8,9 C 93 % 1019,9 hPa 0,0 l/m 0 min 0 min 0 W/m 12,9 km/h (3 Bft) 97,87 %
19.10.2021 03:54 10,9 C 10,0 C 8,9 C 93 % 1020,0 hPa 0,0 l/m 0 min 0 min 0 W/m 6,4 km/h (2 Bft) 97,87 %
19.10.2021 03:56 10,9 C 10,0 C 8,9 C 93 % 1020,0 hPa 0,0 l/m 0 min 0 min 0 W/m 6,4 km/h (2 Bft) 97,87 %
19.10.2021 03:58 10,9 C 10,0 C 8,9 C 93 % 1020,0 hPa 0,0 l/m 0 min 0 min 0 W/m 6,4 km/h (2 Bft) 95,74 %
19.10.2021 04:00 10,9 C 10,0 C 8,9 C 93 % 1020,0 hPa 0,0 l/m 0 min 0 min 0 W/m 6,4 km/h (2 Bft) 97,83 %
19.10.2021 04:05 10,9 C 10,0 C 8,9 C 93 % 1019,9 hPa 0,0 l/m 0 min 5 min 0 W/m 12,9 km/h (3 Bft) 98,78 %
19.10.2021 04:06 10,9 C 10,0 C 8,9 C 93 % 1019,9 hPa 0,2 l/m 0 min 1 min 0 W/m 6,4 km/h (2 Bft) 100,00 %
19.10.2021 04:08 10,9 C 10,0 C 8,9 C 93 % 1019,9 hPa 0,0 l/m 0 min 2 min 0 W/m 12,9 km/h (3 Bft) 97,87 %
19.10.2021 04:10 10,9 C 10,0 C 8,9 C 93 % 1019,9 hPa 0,0 l/m 0 min 2 min 0 W/m 12,9 km/h (3 Bft) 97,87 %
19.10.2021 04:12 11,0 C 10,0 C 8,9 C 93 % 1019,9 hPa 0,0 l/m 0 min 2 min 0 W/m 12,9 km/h (3 Bft) 95,65 %
19.10.2021 04:14 11,0 C 10,0 C 8,9 C 93 % 1019,9 hPa 0,0 l/m 0 min 2 min 0 W/m 6,4 km/h (2 Bft) 95,74 %
19.10.2021 04:16 11,0 C 10,0 C 8,9 C 94 % 1019,9 hPa 0,0 l/m 0 min 2 min 0 W/m 6,4 km/h (2 Bft) 95,74 %
19.10.2021 04:18 11,0 C 10,0 C 8,9 C 94 % 1019,9 hPa 0,0 l/m 0 min 2 min 0 W/m 3,2 km/h (1 Bft) 100,00 %
19.10.2021 04:20 11,0 C 10,0 C 8,9 C 94 % 1019,9 hPa 0,0 l/m 0 min 2 min 0 W/m 6,4 km/h (2 Bft) 100,00 %
19.10.2021 04:22 11,0 C 10,0 C 8,9 C 94 % 1019,9 hPa 0,0 l/m 0 min 2 min 0 W/m 12,9 km/h (3 Bft) 97,87 %
19.10.2021 04:24 11,0 C 10,0 C 8,9 C 94 % 1019,8 hPa 0,0 l/m 0 min 2 min 0 W/m 6,4 km/h (2 Bft) 100,00 %
19.10.2021 04:26 11,0 C 10,0 C 8,9 C 94 % 1019,8 hPa 0,0 l/m 0 min 0 min 0 W/m 6,4 km/h (2 Bft) 100,00 %
19.10.2021 04:28 11,0 C 10,0 C 8,9 C 94 % 1019,7 hPa 0,0 l/m 0 min 2 min 0 W/m 3,2 km/h (1 Bft) 100,00 %
19.10.2021 04:30 11,0 C 10,0 C 8,9 C 94 % 1019,7 hPa 0,0 l/m 0 min 2 min 0 W/m 6,4 km/h (2 Bft) 100,00 %
19.10.2021 04:32 11,0 C 10,0 C 8,9 C 94 % 1019,6 hPa 0,0 l/m 0 min 2 min 0 W/m 3,2 km/h (1 Bft) 100,00 %
19.10.2021 04:34 11,0 C 10,0 C 8,9 C 94 % 1019,6 hPa 0,0 l/m 0 min 2 min 0 W/m 6,4 km/h (2 Bft) 100,00 %
19.10.2021 04:36 11,0 C 10,0 C 8,9 C 94 % 1019,5 hPa 0,2 l/m 0 min 2 min 0 W/m 3,2 km/h (1 Bft) 97,83 %
19.10.2021 04:38 11,0 C 10,0 C 8,9 C 94 % 1019,4 hPa 0,0 l/m 0 min 2 min 0 W/m 6,4 km/h (2 Bft) 100,00 %
19.10.2021 04:40 11,0 C 10,0 C 8,9 C 94 % 1019,4 hPa 0,0 l/m 0 min 2 min 0 W/m 3,2 km/h (1 Bft) 100,00 %
19.10.2021 04:42 11,0 C 10,0 C 8,9 C 94 % 1019,4 hPa 0,0 l/m 0 min 2 min 0 W/m 6,4 km/h (2 Bft) 100,00 %
19.10.2021 04:44 11,0 C 10,0 C 8,9 C 94 % 1019,3 hPa 0,0 l/m 0 min 2 min 0 W/m 6,4 km/h (2 Bft) 100,00 %
19.10.2021 04:46 11,0 C 10,0 C 8,9 C 94 % 1019,4 hPa 0,0 l/m 0 min 2 min 0 W/m 6,4 km/h (2 Bft) 97,87 %
19.10.2021 04:48 11,0 C 10,0 C 8,9 C 94 % 1019,4 hPa 0,0 l/m 0 min 2 min 0 W/m 6,4 km/h (2 Bft) 100,00 %
19.10.2021 04:50 11,0 C 10,0 C 8,9 C 95 % 1019,4 hPa 0,0 l/m 0 min 2 min 0 W/m 6,4 km/h (2 Bft) 100,00 %
19.10.2021 04:52 11,0 C 10,0 C 8,9 C 95 % 1019,4 hPa 0,0 l/m 0 min 0 min 0 W/m 6,4 km/h (2 Bft) 95,74 %
19.10.2021 04:54 11,0 C 10,0 C 8,9 C 95 % 1019,3 hPa 0,0 l/m 0 min 0 min 0 W/m 6,4 km/h (2 Bft) 100,00 %
19.10.2021 04:56 11,0 C 10,0 C 8,9 C 95 % 1019,3 hPa 0,0 l/m 0 min 0 min 0 W/m 9,7 km/h (2 Bft) 97,87 %
19.10.2021 04:58 11,0 C 10,0 C 8,9 C 95 % 1019,3 hPa 0,0 l/m 0 min 0 min 0 W/m 6,4 km/h (2 Bft) 100,00 %
19.10.2021 05:00 11,0 C 10,0 C 8,9 C 95 % 1019,1 hPa 0,0 l/m 0 min 0 min 0 W/m 12,9 km/h (3 Bft) 100,00 %
19.10.2021 05:02 11,0 C 10,0 C 8,9 C 95 % 1019,2 hPa 0,0 l/m 0 min 2 min 0 W/m 16,1 km/h (3 Bft) 100,00 %
19.10.2021 05:04 11,0 C 10,0 C 8,9 C 95 % 1019,2 hPa 0,0 l/m 0 min 0 min 0 W/m 12,9 km/h (3 Bft) 100,00 %
19.10.2021 05:06 11,0 C 10,6 C 9,5 C 95 % 1019,2 hPa 0,0 l/m 0 min 0 min 0 W/m 12,9 km/h (3 Bft) 95,74 %
19.10.2021 05:08 11,0 C 10,6 C 9,5 C 95 % 1019,2 hPa 0,0 l/m 0 min 2 min 0 W/m 12,9 km/h (3 Bft) 97,87 %
19.10.2021 05:10 11,0 C 10,6 C 9,5 C 95 % 1019,2 hPa 0,0 l/m 0 min 2 min 0 W/m 6,4 km/h (2 Bft) 97,83 %
19.10.2021 05:12 11,0 C 10,6 C 9,5 C 95 % 1019,2 hPa 0,0 l/m 0 min 2 min 0 W/m 12,9 km/h (3 Bft) 97,87 %
19.10.2021 05:14 11,0 C 10,6 C 9,5 C 95 % 1019,2 hPa 0,0 l/m 0 min 2 min 0 W/m 6,4 km/h (2 Bft) 95,74 %
19.10.2021 05:16 11,0 C 10,6 C 9,5 C 95 % 1019,2 hPa 0,0 l/m 0 min 0 min 0 W/m 9,7 km/h (2 Bft) 95,74 %
19.10.2021 05:18 11,1 C 10,6 C 9,5 C 95 % 1019,2 hPa 0,0 l/m 0 min 0 min 0 W/m 12,9 km/h (3 Bft) 97,87 %
19.10.2021 05:20 11,1 C 10,6 C 9,5 C 95 % 1019,2 hPa 0,0 l/m 0 min 2 min 0 W/m 6,4 km/h (2 Bft) 93,62 %
19.10.2021 05:22 11,1 C 10,6 C 9,5 C 95 % 1019,2 hPa 0,0 l/m 0 min 2 min 0 W/m 6,4 km/h (2 Bft) 95,65 %
19.10.2021 05:24 11,1 C 10,6 C 9,5 C 95 % 1019,2 hPa 0,0 l/m 0 min 2 min 0 W/m 6,4 km/h (2 Bft) 93,62 %
19.10.2021 05:26 11,1 C 10,6 C 9,5 C 95 % 1019,2 hPa 0,2 l/m 0 min 2 min 0 W/m 6,4 km/h (2 Bft) 95,74 %
19.10.2021 05:28 11,1 C 10,6 C 9,5 C 95 % 1019,2 hPa 0,0 l/m 0 min 2 min 0 W/m 6,4 km/h (2 Bft) 95,74 %
19.10.2021 05:30 11,1 C 10,6 C 9,5 C 95 % 1019,2 hPa 0,0 l/m 0 min 2 min 0 W/m 9,7 km/h (2 Bft) 93,62 %
19.10.2021 05:32 11,1 C 10,6 C 9,5 C 95 % 1019,1 hPa 0,0 l/m 0 min 2 min 0 W/m 6,4 km/h (2 Bft) 95,74 %
19.10.2021 05:34 11,1 C 10,6 C 9,5 C 96 % 1019,1 hPa 0,0 l/m 0 min 2 min 0 W/m 16,1 km/h (3 Bft) 93,48 %
19.10.2021 05:36 11,2 C 10,6 C 9,5 C 96 % 1019,1 hPa 0,2 l/m 0 min 2 min 0 W/m 9,7 km/h (2 Bft) 95,74 %
19.10.2021 05:38 11,2 C 10,6 C 9,5 C 96 % 1019,1 hPa 0,0 l/m 0 min 2 min 0 W/m 6,4 km/h (2 Bft) 91,49 %
19.10.2021 05:40 11,2 C 10,6 C 9,5 C 96 % 1019,1 hPa 0,0 l/m 0 min 2 min 0 W/m 12,9 km/h (3 Bft) 95,74 %
19.10.2021 05:42 11,2 C 10,6 C 9,5 C 96 % 1019,1 hPa 0,0 l/m 0 min 2 min 0 W/m 6,4 km/h (2 Bft) 93,62 %
19.10.2021 05:44 11,2 C 10,6 C 9,5 C 96 % 1019,1 hPa 0,0 l/m 0 min 2 min 0 W/m 12,9 km/h (3 Bft) 93,62 %
19.10.2021 05:46 11,2 C 10,6 C 9,5 C 96 % 1019,2 hPa 0,2 l/m 0 min 2 min 0 W/m 6,4 km/h (2 Bft) 93,48 %
19.10.2021 05:48 11,2 C 10,6 C 9,5 C 96 % 1019,1 hPa 0,2 l/m 0 min 2 min 0 W/m 9,7 km/h (2 Bft) 93,62 %
19.10.2021 05:50 11,2 C 10,6 C 9,5 C 96 % 1019,1 hPa 0,0 l/m 0 min 2 min 0 W/m 16,1 km/h (3 Bft) 91,49 %
19.10.2021 05:52 11,3 C 10,6 C 9,5 C 96 % 1019,1 hPa 0,2 l/m 0 min 2 min 0 W/m 12,9 km/h (3 Bft) 93,62 %
19.10.2021 05:54 11,3 C 10,6 C 9,5 C 96 % 1019,1 hPa 0,2 l/m 0 min 2 min 0 W/m 6,4 km/h (2 Bft) 91,49 %
19.10.2021 05:56 11,3 C 10,6 C 9,5 C 96 % 1019,1 hPa 0,0 l/m 0 min 2 min 0 W/m 6,4 km/h (2 Bft) 97,87 %
19.10.2021 05:58 11,3 C 10,6 C 9,5 C 96 % 1019,0 hPa 0,0 l/m 0 min 2 min 0 W/m 9,7 km/h (2 Bft) 97,83 %
19.10.2021 06:00 11,3 C 10,6 C 9,5 C 96 % 1019,0 hPa 0,0 l/m 0 min 2 min 0 W/m 6,4 km/h (2 Bft) 97,87 %
19.10.2021 06:02 11,3 C 10,6 C 9,5 C 96 % 1019,0 hPa 0,2 l/m 0 min 2 min 0 W/m 6,4 km/h (2 Bft) 97,87 %
19.10.2021 06:04 11,3 C 10,6 C 9,5 C 96 % 1019,0 hPa 0,2 l/m 0 min 2 min 0 W/m 16,1 km/h (3 Bft) 97,87 %
19.10.2021 06:06 11,3 C 10,6 C 9,5 C 96 % 1019,0 hPa 0,0 l/m 0 min 2 min 0 W/m 12,9 km/h (3 Bft) 97,87 %
19.10.2021 06:08 11,3 C 10,6 C 9,5 C 96 % 1018,9 hPa 0,2 l/m 0 min 2 min 0 W/m 6,4 km/h (2 Bft) 95,74 %
19.10.2021 06:10 11,3 C 10,6 C 9,5 C 96 % 1019,0 hPa 0,2 l/m 0 min 2 min 0 W/m 9,7 km/h (2 Bft) 95,65 %
19.10.2021 06:12 11,3 C 10,6 C 9,5 C 96 % 1018,9 hPa 0,2 l/m 0 min 2 min 0 W/m 12,9 km/h (3 Bft) 97,87 %
19.10.2021 06:14 11,3 C 10,6 C 9,5 C 96 % 1019,0 hPa 0,0 l/m 0 min 2 min 0 W/m 12,9 km/h (3 Bft) 100,00 %
19.10.2021 06:16 11,3 C 10,6 C 9,5 C 96 % 1019,0 hPa 0,0 l/m 0 min 2 min 0 W/m 12,9 km/h (3 Bft) 97,87 %
19.10.2021 06:18 11,3 C 10,6 C 9,5 C 96 % 1018,9 hPa 0,2 l/m 0 min 2 min 0 W/m 16,1 km/h (3 Bft) 100,00 %
19.10.2021 06:20 11,3 C 10,6 C 9,5 C 96 % 1018,9 hPa 0,0 l/m 0 min 0 min 0 W/m 12,9 km/h (3 Bft) 100,00 %
19.10.2021 06:22 11,3 C 10,6 C 9,5 C 96 % 1018,8 hPa 0,0 l/m 0 min 0 min 0 W/m 12,9 km/h (3 Bft) 97,83 %
19.10.2021 06:24 11,3 C 10,6 C 9,5 C 96 % 1018,8 hPa 0,0 l/m 0 min 0 min 0 W/m 12,9 km/h (3 Bft) 100,00 %
19.10.2021 06:26 11,3 C 10,6 C 9,5 C 96 % 1018,8 hPa 0,0 l/m 0 min 0 min 0 W/m 16,1 km/h (3 Bft) 100,00 %
19.10.2021 06:28 11,3 C 10,6 C 9,5 C 96 % 1018,8 hPa 0,0 l/m 0 min 2 min 0 W/m 12,9 km/h (3 Bft) 100,00 %
19.10.2021 06:30 11,3 C 10,6 C 9,5 C 96 % 1018,8 hPa 0,0 l/m 0 min 2 min 0 W/m 6,4 km/h (2 Bft) 100,00 %
19.10.2021 06:32 11,3 C 10,6 C 9,5 C 96 % 1018,7 hPa 0,0 l/m 0 min 2 min 0 W/m 12,9 km/h (3 Bft) 100,00 %
19.10.2021 06:34 11,3 C 10,6 C 9,5 C 97 % 1018,8 hPa 0,0 l/m 0 min 2 min 0 W/m 12,9 km/h (3 Bft) 100,00 %
19.10.2021 06:36 11,3 C 10,6 C 10,0 C 97 % 1018,7 hPa 0,0 l/m 0 min 0 min 0 W/m 16,1 km/h (3 Bft) 100,00 %
19.10.2021 06:38 11,3 C 10,6 C 10,0 C 97 % 1018,7 hPa 0,0 l/m 0 min 0 min 0 W/m 6,4 km/h (2 Bft) 100,00 %
19.10.2021 06:40 11,3 C 10,6 C 10,0 C 97 % 1018,7 hPa 0,0 l/m 0 min 0 min 0 W/m 12,9 km/h (3 Bft) 100,00 %
19.10.2021 06:42 11,3 C 10,6 C 10,0 C 97 % 1018,7 hPa 0,0 l/m 0 min 0 min 0 W/m 19,3 km/h (3 Bft) 100,00 %
19.10.2021 06:44 11,3 C 10,6 C 10,0 C 97 % 1018,8 hPa 0,0 l/m 0 min 0 min 0 W/m 16,1 km/h (3 Bft) 100,00 %
19.10.2021 06:46 11,3 C 10,6 C 10,0 C 97 % 1018,7 hPa 0,0 l/m 0 min 0 min 0 W/m 9,7 km/h (2 Bft) 100,00 %
19.10.2021 06:48 11,3 C 10,6 C 10,0 C 97 % 1018,8 hPa 0,0 l/m 0 min 0 min 0 W/m 6,4 km/h (2 Bft) 100,00 %
19.10.2021 06:50 11,3 C 10,6 C 10,0 C 97 % 1018,7 hPa 0,0 l/m 0 min 2 min 0 W/m 6,4 km/h (2 Bft) 100,00 %
19.10.2021 06:52 11,3 C 10,6 C 10,0 C 97 % 1018,7 hPa 0,0 l/m 0 min 2 min 0 W/m 6,4 km/h (2 Bft) 100,00 %
19.10.2021 06:54 11,3 C 10,6 C 10,0 C 97 % 1018,7 hPa 0,0 l/m 0 min 0 min 0 W/m 9,7 km/h (2 Bft) 100,00 %
19.10.2021 06:56 11,4 C 10,6 C 10,0 C 97 % 1018,6 hPa 0,0 l/m 0 min 2 min 0 W/m 19,3 km/h (3 Bft) 100,00 %
19.10.2021 06:58 11,3 C 10,6 C 10,0 C 97 % 1018,6 hPa 0,0 l/m 0 min 2 min 0 W/m 12,9 km/h (3 Bft) 100,00 %
19.10.2021 07:00 11,4 C 10,6 C 10,0 C 97 % 1018,6 hPa 0,0 l/m 0 min 0 min 0 W/m 16,1 km/h (3 Bft) 100,00 %
19.10.2021 07:02 11,4 C 10,6 C 10,0 C 97 % 1018,6 hPa 0,0 l/m 0 min 0 min 0 W/m 16,1 km/h (3 Bft) 97,87 %
19.10.2021 07:04 11,4 C 10,6 C 10,0 C 97 % 1018,6 hPa 0,0 l/m 0 min 0 min 0 W/m 16,1 km/h (3 Bft) 100,00 %
19.10.2021 07:06 11,4 C 10,6 C 10,0 C 97 % 1018,6 hPa 0,0 l/m 0 min 2 min 0 W/m 16,1 km/h (3 Bft) 100,00 %
19.10.2021 07:08 11,4 C 10,6 C 10,0 C 97 % 1018,6 hPa 0,0 l/m 0 min 2 min 0 W/m 6,4 km/h (2 Bft) 100,00 %
19.10.2021 07:10 11,4 C 10,6 C 10,0 C 97 % 1018,6 hPa 0,0 l/m 0 min 2 min 0 W/m 12,9 km/h (3 Bft) 100,00 %
19.10.2021 07:12 11,4 C 10,6 C 10,0 C 97 % 1018,6 hPa 0,0 l/m 0 min 0 min 0 W/m 16,1 km/h (3 Bft) 100,00 %
19.10.2021 07:14 11,4 C 10,6 C 10,0 C 97 % 1018,6 hPa 0,0 l/m 0 min 0 min 0 W/m 12,9 km/h (3 Bft) 100,00 %
19.10.2021 07:16 11,4 C 10,6 C 10,0 C 97 % 1018,5 hPa 0,0 l/m 0 min 0 min 0 W/m 12,9 km/h (3 Bft) 97,87 %
19.10.2021 07:18 11,4 C 10,6 C 10,0 C 97 % 1018,5 hPa 0,0 l/m 0 min 0 min 0 W/m 16,1 km/h (3 Bft) 100,00 %
19.10.2021 07:20 11,4 C 10,6 C 10,0 C 97 % 1018,5 hPa 0,0 l/m 0 min 0 min 0 W/m 12,9 km/h (3 Bft) 100,00 %
19.10.2021 07:22 11,4 C 10,6 C 10,0 C 97 % 1018,5 hPa 0,0 l/m 0 min 0 min 0 W/m 6,4 km/h (2 Bft) 100,00 %
19.10.2021 07:24 11,4 C 10,6 C 10,0 C 97 % 1018,5 hPa 0,0 l/m 0 min 0 min 0 W/m 12,9 km/h (3 Bft) 100,00 %
19.10.2021 07:26 11,4 C 10,6 C 10,0 C 97 % 1018,5 hPa 0,0 l/m 0 min 0 min 0 W/m 12,9 km/h (3 Bft) 97,87 %
19.10.2021 07:28 11,4 C 10,6 C 10,0 C 97 % 1018,6 hPa 0,0 l/m 0 min 0 min 0 W/m 19,3 km/h (3 Bft) 100,00 %
19.10.2021 07:30 11,4 C 10,6 C 10,0 C 97 % 1018,6 hPa 0,2 l/m 0 min 0 min 0 W/m 6,4 km/h (2 Bft) 100,00 %
19.10.2021 07:32 11,4 C 10,6 C 10,0 C 97 % 1018,6 hPa 0,0 l/m 0 min 0 min 0 W/m 12,9 km/h (3 Bft) 97,83 %
19.10.2021 07:34 11,4 C 10,6 C 10,0 C 97 % 1018,6 hPa 0,0 l/m 0 min 0 min 0 W/m 6,4 km/h (2 Bft) 97,87 %
19.10.2021 07:36 11,4 C 10,6 C 10,0 C 97 % 1018,6 hPa 0,0 l/m 0 min 0 min 0 W/m 12,9 km/h (3 Bft) 95,74 %
19.10.2021 07:38 11,4 C 10,6 C 10,0 C 97 % 1018,6 hPa 0,0 l/m 0 min 2 min 0 W/m 6,4 km/h (2 Bft) 97,87 %
19.10.2021 07:40 11,4 C 10,6 C 10,0 C 97 % 1018,7 hPa 0,0 l/m 0 min 2 min 0 W/m 6,4 km/h (2 Bft) 97,87 %
19.10.2021 07:42 11,4 C 10,6 C 10,0 C 97 % 1018,6 hPa 0,0 l/m 0 min 2 min 0 W/m 12,9 km/h (3 Bft) 93,62 %
19.10.2021 07:44 11,4 C 10,6 C 10,0 C 97 % 1018,6 hPa 0,0 l/m 0 min 0 min 0 W/m 9,7 km/h (2 Bft) 97,83 %
19.10.2021 07:46 11,4 C 10,6 C 10,0 C 97 % 1018,5 hPa 0,0 l/m 0 min 0 min 0 W/m 12,9 km/h (3 Bft) 97,87 %
19.10.2021 07:48 11,4 C 10,6 C 10,0 C 97 % 1018,5 hPa 0,0 l/m 0 min 0 min 0 W/m 12,9 km/h (3 Bft) 97,87 %
19.10.2021 07:50 11,4 C 10,6 C 10,0 C 97 % 1018,5 hPa 0,0 l/m 0 min 0 min 0 W/m 6,4 km/h (2 Bft) 95,74 %
19.10.2021 07:52 11,4 C 10,6 C 10,0 C 97 % 1018,6 hPa 0,0 l/m 0 min 0 min 0 W/m 9,7 km/h (2 Bft) 93,62 %
19.10.2021 07:54 11,4 C 10,6 C 10,0 C 97 % 1018,6 hPa 0,0 l/m 0 min 0 min 0 W/m 16,1 km/h (3 Bft) 95,74 %
19.10.2021 07:56 11,4 C 10,6 C 10,0 C 97 % 1018,5 hPa 0,0 l/m 0 min 0 min 0 W/m 6,4 km/h (2 Bft) 95,65 %
19.10.2021 07:58 11,4 C 10,6 C 10,0 C 97 % 1018,5 hPa 0,0 l/m 0 min 0 min 0 W/m 12,9 km/h (3 Bft) 93,62 %
19.10.2021 08:00 11,4 C 10,6 C 10,0 C 97 % 1018,5 hPa 0,0 l/m 0 min 0 min 0 W/m 6,4 km/h (2 Bft) 93,62 %
19.10.2021 08:02 11,4 C 10,6 C 10,0 C 97 % 1018,4 hPa 0,0 l/m 0 min 0 min 0 W/m 9,7 km/h (2 Bft) 91,49 %
19.10.2021 08:04 11,4 C 10,6 C 10,0 C 97 % 1018,5 hPa 0,0 l/m 0 min 0 min 0 W/m 12,9 km/h (3 Bft) 92,00 %
19.10.2021 08:06 11,4 C 10,6 C 10,6 C 97 % 1018,4 hPa 0,0 l/m 0 min 0 min 0 W/m 12,9 km/h (3 Bft) 93,62 %
19.10.2021 08:08 11,4 C 10,6 C 10,0 C 97 % 1018,5 hPa 0,0 l/m 0 min 0 min 0 W/m 6,4 km/h (2 Bft) 91,49 %
19.10.2021 08:10 11,4 C 10,6 C 10,0 C 97 % 1018,5 hPa 0,0 l/m 0 min 0 min 0 W/m 12,9 km/h (3 Bft) 93,48 %
19.10.2021 08:12 11,4 C 10,6 C 10,6 C 97 % 1018,5 hPa 0,0 l/m 0 min 0 min 0 W/m 9,7 km/h (2 Bft) 95,74 %
19.10.2021 08:14 11,5 C 10,6 C 10,6 C 97 % 1018,4 hPa 0,0 l/m 0 min 0 min 0 W/m 6,4 km/h (2 Bft) 91,49 %
19.10.2021 08:16 11,5 C 10,6 C 10,6 C 98 % 1018,4 hPa 0,0 l/m 0 min 0 min 0 W/m 6,4 km/h (2 Bft) 97,87 %
19.10.2021 08:18 11,5 C 10,6 C 10,6 C 98 % 1018,5 hPa 0,2 l/m 0 min 0 min 0 W/m 6,4 km/h (2 Bft) 95,74 %
19.10.2021 08:20 11,5 C 10,6 C 10,6 C 98 % 1018,4 hPa 0,0 l/m 0 min 0 min 0 W/m 12,9 km/h (3 Bft) 97,87 %
19.10.2021 08:22 11,5 C 10,6 C 10,6 C 98 % 1018,4 hPa 0,0 l/m 0 min 0 min 0 W/m 12,9 km/h (3 Bft) 95,65 %
19.10.2021 08:24 11,5 C 10,6 C 10,6 C 98 % 1018,5 hPa 0,0 l/m 0 min 0 min 0 W/m 12,9 km/h (3 Bft) 95,74 %
19.10.2021 08:26 11,5 C 10,6 C 10,6 C 98 % 1018,5 hPa 0,0 l/m 0 min 0 min 0 W/m 6,4 km/h (2 Bft) 95,74 %
19.10.2021 08:28 11,5 C 10,6 C 10,6 C 98 % 1018,5 hPa 0,0 l/m 0 min 0 min 0 W/m 6,4 km/h (2 Bft) 95,74 %
19.10.2021 08:30 11,5 C 10,6 C 10,6 C 98 % 1018,3 hPa 0,0 l/m 0 min 0 min 5 W/m 6,4 km/h (2 Bft) 93,62 %
19.10.2021 08:32 11,5 C 10,6 C 10,6 C 98 % 1018,2 hPa 0,0 l/m 0 min 0 min 6 W/m 6,4 km/h (2 Bft) 93,62 %
19.10.2021 08:34 11,5 C 10,6 C 10,6 C 98 % 1018,3 hPa 0,0 l/m 0 min 0 min 7 W/m 9,7 km/h (2 Bft) 95,65 %
19.10.2021 08:36 11,5 C 11,1 C 10,6 C 98 % 1018,3 hPa 0,0 l/m 0 min 0 min 7 W/m 6,4 km/h (2 Bft) 93,62 %
19.10.2021 08:38 11,6 C 11,1 C 10,6 C 98 % 1018,4 hPa 0,0 l/m 0 min 0 min 8 W/m 6,4 km/h (2 Bft) 95,74 %
19.10.2021 08:40 11,6 C 11,1 C 10,6 C 98 % 1018,3 hPa 0,0 l/m 0 min 0 min 10 W/m 6,4 km/h (2 Bft) 97,87 %
19.10.2021 08:42 11,6 C 11,1 C 10,6 C 98 % 1018,4 hPa 0,0 l/m 0 min 0 min 8 W/m 12,9 km/h (3 Bft) 97,87 %
19.10.2021 08:44 11,6 C 11,1 C 10,6 C 98 % 1018,4 hPa 0,0 l/m 0 min 0 min 9 W/m 6,4 km/h (2 Bft) 97,87 %
19.10.2021 08:46 11,6 C 11,1 C 10,6 C 98 % 1018,4 hPa 0,0 l/m 0 min 0 min 9 W/m 12,9 km/h (3 Bft) 95,65 %
19.10.2021 08:48 11,6 C 11,1 C 10,6 C 98 % 1018,4 hPa 0,0 l/m 0 min 0 min 9 W/m 12,9 km/h (3 Bft) 95,74 %
19.10.2021 08:50 11,6 C 11,1 C 10,6 C 98 % 1018,4 hPa 0,0 l/m 0 min 0 min 11 W/m 9,7 km/h (2 Bft) 100,00 %
19.10.2021 08:52 11,7 C 11,1 C 10,6 C 98 % 1018,4 hPa 0,0 l/m 0 min 0 min 14 W/m 6,4 km/h (2 Bft) 100,00 %
19.10.2021 08:54 11,7 C 11,1 C 10,6 C 98 % 1018,4 hPa 0,0 l/m 0 min 0 min 15 W/m 6,4 km/h (2 Bft) 100,00 %
19.10.2021 08:56 11,7 C 11,1 C 10,6 C 98 % 1018,3 hPa 0,0 l/m 0 min 0 min 18 W/m 6,4 km/h (2 Bft) 100,00 %
19.10.2021 08:58 11,8 C 11,1 C 10,6 C 98 % 1018,3 hPa 0,0 l/m 0 min 0 min 18 W/m 6,4 km/h (2 Bft) 100,00 %
19.10.2021 09:00 11,8 C 11,1 C 10,6 C 98 % 1018,3 hPa 0,0 l/m 0 min 0 min 18 W/m 9,7 km/h (2 Bft) 100,00 %
19.10.2021 09:02 11,8 C 11,1 C 10,6 C 98 % 1018,4 hPa 0,0 l/m 0 min 0 min 18 W/m 6,4 km/h (2 Bft) 95,74 %
19.10.2021 09:04 11,8 C 11,1 C 10,6 C 98 % 1018,3 hPa 0,0 l/m 0 min 0 min 20 W/m 6,4 km/h (2 Bft) 100,00 %
19.10.2021 09:06 11,8 C 11,1 C 10,6 C 98 % 1018,4 hPa 0,0 l/m 0 min 2 min 20 W/m 6,4 km/h (2 Bft) 100,00 %
19.10.2021 09:08 11,8 C 11,1 C 10,6 C 98 % 1018,4 hPa 0,0 l/m 0 min 2 min 20 W/m 6,4 km/h (2 Bft) 100,00 %
19.10.2021 09:10 11,9 C 11,1 C 10,6 C 98 % 1018,3 hPa 0,0 l/m 0 min 0 min 27 W/m 9,7 km/h (2 Bft) 100,00 %
19.10.2021 09:12 11,9 C 11,1 C 11,1 C 98 % 1018,3 hPa 0,0 l/m 0 min 0 min 23 W/m 12,9 km/h (3 Bft) 100,00 %
19.10.2021 09:14 11,9 C 11,1 C 11,1 C 98 % 1018,3 hPa 0,0 l/m 0 min 0 min 19 W/m 6,4 km/h (2 Bft) 100,00 %
19.10.2021 09:16 11,9 C 11,1 C 11,1 C 98 % 1018,4 hPa 0,0 l/m 0 min 0 min 17 W/m 12,9 km/h (3 Bft) 97,87 %
19.10.2021 09:18 11,9 C 11,1 C 11,1 C 98 % 1018,4 hPa 0,0 l/m 0 min 0 min 16 W/m 6,4 km/h (2 Bft) 100,00 %
19.10.2021 09:20 11,9 C 11,1 C 11,1 C 98 % 1018,5 hPa 0,0 l/m 0 min 0 min 15 W/m 9,7 km/h (2 Bft) 100,00 %
19.10.2021 09:22 12,0 C 11,1 C 11,1 C 98 % 1018,4 hPa 0,0 l/m 0 min 0 min 18 W/m 6,4 km/h (2 Bft) 100,00 %
19.10.2021 09:24 12,0 C 11,1 C 11,1 C 98 % 1018,4 hPa 0,0 l/m 0 min 0 min 18 W/m 3,2 km/h (1 Bft) 100,00 %
19.10.2021 09:26 12,0 C 11,1 C 11,1 C 98 % 1018,4 hPa 0,0 l/m 0 min 0 min 19 W/m 6,4 km/h (2 Bft) 100,00 %
19.10.2021 09:28 12,0 C 11,7 C 11,1 C 98 % 1018,4 hPa 0,0 l/m 0 min 0 min 19 W/m 12,9 km/h (3 Bft) 100,00 %
19.10.2021 09:30 12,0 C 11,7 C 11,1 C 98 % 1018,5 hPa 0,0 l/m 0 min 0 min 18 W/m 6,4 km/h (2 Bft) 97,87 %
19.10.2021 09:32 12,0 C 11,7 C 11,1 C 98 % 1018,4 hPa 0,0 l/m 0 min 0 min 18 W/m 6,4 km/h (2 Bft) 100,00 %
19.10.2021 09:34 12,0 C 11,7 C 11,1 C 98 % 1018,5 hPa 0,0 l/m 0 min 0 min 16 W/m 6,4 km/h (2 Bft) 97,83 %
19.10.2021 09:36 12,0 C 11,7 C 11,1 C 98 % 1018,5 hPa 0,0 l/m 0 min 0 min 17 W/m 6,4 km/h (2 Bft) 97,87 %
19.10.2021 09:38 12,0 C 11,7 C 11,1 C 98 % 1018,5 hPa 0,0 l/m 0 min 0 min 17 W/m 6,4 km/h (2 Bft) 97,87 %
19.10.2021 09:40 12,1 C 11,7 C 11,1 C 98 % 1018,5 hPa 0,0 l/m 0 min 0 min 16 W/m 3,2 km/h (1 Bft) 95,74 %
19.10.2021 09:42 12,1 C 11,7 C 11,1 C 98 % 1018,6 hPa 0,0 l/m 0 min 0 min 16 W/m 3,2 km/h (1 Bft) 97,87 %
19.10.2021 09:44 12,1 C 11,7 C 11,1 C 98 % 1018,5 hPa 0,0 l/m 0 min 0 min 17 W/m 3,2 km/h (1 Bft) 97,87 %
19.10.2021 09:46 12,1 C 11,7 C 11,1 C 98 % 1018,6 hPa 0,0 l/m 0 min 0 min 18 W/m 6,4 km/h (2 Bft) 97,83 %
19.10.2021 09:48 12,1 C 11,7 C 11,1 C 98 % 1018,5 hPa 0,0 l/m 0 min 0 min 21 W/m 6,4 km/h (2 Bft) 97,87 %
19.10.2021 09:50 12,1 C 11,7 C 11,1 C 98 % 1018,5 hPa 0,0 l/m 0 min 0 min 23 W/m 6,4 km/h (2 Bft) 97,87 %
19.10.2021 09:52 12,1 C 11,7 C 11,1 C 98 % 1018,5 hPa 0,0 l/m 0 min 0 min 25 W/m 6,4 km/h (2 Bft) 97,87 %
19.10.2021 09:54 12,2 C 11,7 C 11,1 C 98 % 1018,5 hPa 0,0 l/m 0 min 0 min 26 W/m 12,9 km/h (3 Bft) 97,87 %
19.10.2021 09:56 12,2 C 11,7 C 11,1 C 98 % 1018,5 hPa 0,0 l/m 0 min 0 min 28 W/m 6,4 km/h (2 Bft) 97,83 %
19.10.2021 09:58 12,2 C 11,7 C 11,1 C 98 % 1018,5 hPa 0,0 l/m 0 min 0 min 27 W/m 6,4 km/h (2 Bft) 97,87 %
19.10.2021 10:00 12,3 C 11,7 C 11,1 C 98 % 1018,5 hPa 0,0 l/m 0 min 0 min 25 W/m 6,4 km/h (2 Bft) 95,74 %
19.10.2021 10:02 12,3 C 11,7 C 11,1 C 98 % 1018,5 hPa 0,0 l/m 0 min 0 min 25 W/m 6,4 km/h (2 Bft) 97,87 %
19.10.2021 10:04 12,3 C 11,7 C 11,1 C 98 % 1018,6 hPa 0,0 l/m 0 min 0 min 25 W/m 6,4 km/h (2 Bft) 97,87 %
19.10.2021 10:06 12,3 C 11,7 C 11,1 C 98 % 1018,5 hPa 0,0 l/m 0 min 0 min 25 W/m 12,9 km/h (3 Bft) 95,74 %
19.10.2021 10:08 12,3 C 11,7 C 11,1 C 98 % 1018,5 hPa 0,0 l/m 0 min 0 min 26 W/m 12,9 km/h (3 Bft) 97,83 %
19.10.2021 10:10 12,3 C 11,7 C 11,1 C 98 % 1018,5 hPa 0,0 l/m 0 min 0 min 28 W/m 6,4 km/h (2 Bft) 97,96 %
19.10.2021 10:12 12,3 C 11,7 C 11,1 C 98 % 1018,5 hPa 0,0 l/m 0 min 0 min 28 W/m 6,4 km/h (2 Bft) 100,00 %
19.10.2021 10:14 12,3 C 11,7 C 11,1 C 98 % 1018,5 hPa 0,0 l/m 0 min 0 min 27 W/m 12,9 km/h (3 Bft) 100,00 %
19.10.2021 10:16 12,4 C 11,7 C 11,1 C 98 % 1018,5 hPa 0,0 l/m 0 min 0 min 29 W/m 6,4 km/h (2 Bft) 100,00 %
19.10.2021 10:18 12,4 C 11,7 C 11,1 C 98 % 1018,6 hPa 0,0 l/m 0 min 0 min 30 W/m 6,4 km/h (2 Bft) 100,00 %
19.10.2021 10:20 12,4 C 11,7 C 11,7 C 98 % 1018,6 hPa 0,0 l/m 0 min 0 min 30 W/m 6,4 km/h (2 Bft) 97,83 %
19.10.2021 10:22 12,4 C 11,7 C 11,7 C 98 % 1018,6 hPa 0,0 l/m 0 min 0 min 32 W/m 6,4 km/h (2 Bft) 100,00 %
19.10.2021 10:24 12,4 C 11,7 C 11,7 C 98 % 1018,6 hPa 0,0 l/m 0 min 0 min 33 W/m 6,4 km/h (2 Bft) 100,00 %
19.10.2021 10:26 12,4 C 11,7 C 11,7 C 98 % 1018,6 hPa 0,0 l/m 0 min 0 min 32 W/m 6,4 km/h (2 Bft) 100,00 %
19.10.2021 10:28 12,4 C 11,7 C 11,7 C 98 % 1018,6 hPa 0,0 l/m 0 min 0 min 34 W/m 12,9 km/h (3 Bft) 95,74 %
19.10.2021 10:30 12,5 C 11,7 C 11,7 C 98 % 1018,5 hPa 0,0 l/m 0 min 0 min 40 W/m 6,4 km/h (2 Bft) 100,00 %
19.10.2021 10:32 12,5 C 12,2 C 11,7 C 98 % 1018,5 hPa 0,0 l/m 0 min 0 min 41 W/m 6,4 km/h (2 Bft) 100,00 %
19.10.2021 10:34 12,5 C 12,2 C 11,7 C 98 % 1018,5 hPa 0,0 l/m 0 min 0 min 40 W/m 12,9 km/h (3 Bft) 100,00 %
19.10.2021 10:36 12,5 C 12,2 C 11,7 C 98 % 1018,5 hPa 0,0 l/m 0 min 0 min 40 W/m 6,4 km/h (2 Bft) 100,00 %
19.10.2021 10:38 12,5 C 12,2 C 11,7 C 98 % 1018,4 hPa 0,0 l/m 0 min 0 min 41 W/m 6,4 km/h (2 Bft) 93,62 %
19.10.2021 10:40 12,5 C 12,2 C 11,7 C 98 % 1018,5 hPa 0,0 l/m 0 min 0 min 43 W/m 6,4 km/h (2 Bft) 97,87 %
19.10.2021 10:42 12,6 C 12,2 C 11,7 C 98 % 1018,5 hPa 0,0 l/m 0 min 0 min 43 W/m 6,4 km/h (2 Bft) 97,87 %
19.10.2021 10:44 12,6 C 12,2 C 11,7 C 98 % 1018,6 hPa 0,0 l/m 0 min 0 min 40 W/m 12,9 km/h (3 Bft) 100,00 %
19.10.2021 10:46 12,6 C 12,2 C 11,7 C 98 % 1018,5 hPa 0,0 l/m 0 min 0 min 38 W/m 9,7 km/h (2 Bft) 95,74 %
19.10.2021 10:48 12,6 C 12,2 C 11,7 C 98 % 1018,5 hPa 0,0 l/m 0 min 0 min 43 W/m 6,4 km/h (2 Bft) 93,62 %
19.10.2021 10:50 12,6 C 12,2 C 11,7 C 98 % 1018,4 hPa 0,0 l/m 0 min 0 min 41 W/m 6,4 km/h (2 Bft) 95,74 %
19.10.2021 10:52 12,6 C 12,2 C 11,7 C 98 % 1018,5 hPa 0,0 l/m 0 min 0 min 40 W/m 3,2 km/h (1 Bft) 91,49 %
19.10.2021 10:54 12,7 C 12,2 C 11,7 C 98 % 1018,5 hPa 0,0 l/m 0 min 0 min 44 W/m 6,4 km/h (2 Bft) 95,65 %
19.10.2021 10:56 12,7 C 12,2 C 11,7 C 98 % 1018,5 hPa 0,0 l/m 0 min 0 min 46 W/m 6,4 km/h (2 Bft) 95,74 %
19.10.2021 10:58 12,7 C 12,2 C 11,7 C 98 % 1018,5 hPa 0,0 l/m 0 min 0 min 46 W/m 6,4 km/h (2 Bft) 95,74 %
19.10.2021 11:00 12,8 C 12,2 C 11,7 C 98 % 1018,5 hPa 0,0 l/m 0 min 0 min 44 W/m 6,4 km/h (2 Bft) 95,74 %
19.10.2021 11:02 12,8 C 12,2 C 11,7 C 98 % 1018,5 hPa 0,0 l/m 0 min 0 min 46 W/m 3,2 km/h (1 Bft) 91,49 %
19.10.2021 11:04 12,8 C 12,2 C 11,7 C 98 % 1018,5 hPa 0,0 l/m 0 min 0 min 45 W/m 6,4 km/h (2 Bft) 95,74 %
19.10.2021 11:06 12,8 C 12,2 C 12,3 C 98 % 1018,5 hPa 0,0 l/m 0 min 0 min 47 W/m 6,4 km/h (2 Bft) 93,48 %
19.10.2021 11:08 12,8 C 12,2 C 12,3 C 98 % 1018,5 hPa 0,0 l/m 0 min 0 min 47 W/m 6,4 km/h (2 Bft) 95,74 %
19.10.2021 11:10 12,9 C 12,2 C 12,3 C 98 % 1018,5 hPa 0,0 l/m 0 min 0 min 44 W/m 6,4 km/h (2 Bft) 93,62 %
19.10.2021 11:12 12,9 C 12,2 C 12,3 C 98 % 1018,5 hPa 0,0 l/m 0 min 0 min 42 W/m 6,4 km/h (2 Bft) 95,74 %
19.10.2021 11:14 12,9 C 12,2 C 12,3 C 98 % 1018,5 hPa 0,0 l/m 0 min 0 min 47 W/m 6,4 km/h (2 Bft) 95,74 %
19.10.2021 11:16 12,9 C 12,2 C 12,3 C 98 % 1018,5 hPa 0,0 l/m 0 min 0 min 54 W/m 6,4 km/h (2 Bft) 95,74 %
19.10.2021 11:18 12,9 C 12,2 C 12,3 C 98 % 1018,5 hPa 0,0 l/m 0 min 0 min 53 W/m 6,4 km/h (2 Bft) 95,65 %
19.10.2021 11:20 12,9 C 12,2 C 12,3 C 99 % 1018,5 hPa 0,0 l/m 0 min 0 min 56 W/m 6,4 km/h (2 Bft) 95,74 %
19.10.2021 11:22 13,0 C 12,2 C 12,3 C 99 % 1018,5 hPa 0,0 l/m 0 min 2 min 56 W/m 6,4 km/h (2 Bft) 95,74 %
19.10.2021 11:24 13,0 C 12,8 C 12,3 C 99 % 1018,5 hPa 0,0 l/m 0 min 0 min 58 W/m 3,2 km/h (1 Bft) 93,62 %
19.10.2021 11:26 13,0 C 12,8 C 12,3 C 99 % 1018,4 hPa 0,0 l/m 0 min 2 min 55 W/m 6,4 km/h (2 Bft) 95,74 %
19.10.2021 11:28 13,0 C 12,8 C 12,3 C 99 % 1018,4 hPa 0,0 l/m 0 min 2 min 56 W/m 12,9 km/h (3 Bft) 97,87 %
19.10.2021 11:30 13,1 C 12,8 C 12,3 C 99 % 1018,4 hPa 0,0 l/m 0 min 0 min 54 W/m 6,4 km/h (2 Bft) 97,83 %
19.10.2021 11:32 13,1 C 12,8 C 12,3 C 99 % 1018,4 hPa 0,0 l/m 0 min 0 min 54 W/m 6,4 km/h (2 Bft) 97,87 %
19.10.2021 11:34 13,1 C 12,8 C 12,3 C 99 % 1018,3 hPa 0,0 l/m 0 min 0 min 54 W/m 3,2 km/h (1 Bft) 100,00 %
19.10.2021 11:36 13,1 C 12,8 C 12,3 C 99 % 1018,4 hPa 0,2 l/m 0 min 0 min 51 W/m 6,4 km/h (2 Bft) 95,74 %
19.10.2021 11:38 13,1 C 12,8 C 12,3 C 99 % 1018,4 hPa 0,0 l/m 0 min 0 min 47 W/m 3,2 km/h (1 Bft) 97,87 %
19.10.2021 11:40 13,2 C 12,8 C 12,3 C 99 % 1018,4 hPa 0,0 l/m 0 min 0 min 44 W/m 6,4 km/h (2 Bft) 95,74 %
19.10.2021 11:42 13,2 C 12,8 C 12,3 C 99 % 1018,4 hPa 0,0 l/m 0 min 0 min 46 W/m 6,4 km/h (2 Bft) 95,65 %
19.10.2021 11:44 13,3 C 12,8 C 12,3 C 99 % 1018,4 hPa 0,0 l/m 0 min 0 min 47 W/m 6,4 km/h (2 Bft) 97,87 %
19.10.2021 11:46 13,3 C 12,8 C 12,3 C 99 % 1018,4 hPa 0,0 l/m 0 min 0 min 48 W/m 6,4 km/h (2 Bft) 97,87 %
19.10.2021 11:48 13,3 C 12,8 C 12,3 C 99 % 1018,5 hPa 0,0 l/m 0 min 0 min 48 W/m 12,9 km/h (3 Bft) 97,87 %
19.10.2021 11:50 13,4 C 12,8 C 12,3 C 99 % 1018,5 hPa 0,0 l/m 0 min 0 min 49 W/m 6,4 km/h (2 Bft) 97,87 %
19.10.2021 11:52 13,4 C 12,8 C 12,8 C 99 % 1018,5 hPa 0,0 l/m 0 min 0 min 49 W/m 6,4 km/h (2 Bft) 97,87 %
19.10.2021 11:54 13,4 C 12,8 C 12,8 C 99 % 1018,5 hPa 0,0 l/m 0 min 2 min 52 W/m 6,4 km/h (2 Bft) 97,83 %
19.10.2021 11:56 13,4 C 12,8 C 12,8 C 99 % 1018,5 hPa 0,0 l/m 0 min 2 min 53 W/m 6,4 km/h (2 Bft) 97,87 %
19.10.2021 11:58 13,5 C 12,8 C 12,8 C 99 % 1018,5 hPa 0,2 l/m 0 min 2 min 51 W/m 6,4 km/h (2 Bft) 97,87 %
19.10.2021 12:00 13,5 C 12,8 C 12,8 C 99 % 1018,5 hPa 0,0 l/m 0 min 2 min 48 W/m 12,9 km/h (3 Bft) 97,87 %
19.10.2021 12:02 13,5 C 12,8 C 12,8 C 99 % 1018,5 hPa 0,0 l/m 0 min 0 min 49 W/m 12,9 km/h (3 Bft) 97,87 %
19.10.2021 12:04 13,5 C 12,8 C 12,8 C 99 % 1018,4 hPa 0,0 l/m 0 min 0 min 53 W/m 6,4 km/h (2 Bft) 97,87 %
19.10.2021 12:06 13,6 C 12,8 C 12,8 C 99 % 1018,5 hPa 0,2 l/m 0 min 0 min 60 W/m 16,1 km/h (3 Bft) 97,87 %
19.10.2021 12:08 13,6 C 12,8 C 12,8 C 99 % 1018,4 hPa 0,0 l/m 0 min 0 min 67 W/m 6,4 km/h (2 Bft) 97,87 %
19.10.2021 12:10 13,6 C 12,8 C 12,8 C 99 % 1018,5 hPa 0,0 l/m 0 min 0 min 75 W/m 6,4 km/h (2 Bft) 95,74 %
19.10.2021 12:12 13,6 C 13,3 C 12,8 C 99 % 1018,5 hPa 0,2 l/m 0 min 0 min 83 W/m 12,9 km/h (3 Bft) 100,00 %
19.10.2021 12:14 13,7 C 13,3 C 12,8 C 99 % 1018,4 hPa 0,0 l/m 0 min 0 min 79 W/m 12,9 km/h (3 Bft) 100,00 %
19.10.2021 12:16 13,7 C 13,3 C 12,8 C 99 % 1018,5 hPa 0,0 l/m 0 min 0 min 69 W/m 6,4 km/h (2 Bft) 100,00 %
19.10.2021 12:18 13,7 C 13,3 C 12,8 C 99 % 1018,4 hPa 0,0 l/m 0 min 0 min 58 W/m 6,4 km/h (2 Bft) 100,00 %
19.10.2021 12:20 13,8 C 13,3 C 12,8 C 99 % 1018,5 hPa 0,0 l/m 0 min 0 min 52 W/m 6,4 km/h (2 Bft) 100,00 %
19.10.2021 12:22 13,8 C 13,3 C 12,8 C 99 % 1018,5 hPa 0,0 l/m 0 min 0 min 53 W/m 6,4 km/h (2 Bft) 100,00 %
19.10.2021 12:24 13,8 C 13,3 C 12,8 C 99 % 1018,6 hPa 0,0 l/m 0 min 0 min 51 W/m 6,4 km/h (2 Bft) 100,00 %
19.10.2021 12:26 13,8 C 13,3 C 12,8 C 99 % 1018,6 hPa 0,0 l/m 0 min 0 min 50 W/m 12,9 km/h (3 Bft) 100,00 %
19.10.2021 12:28 13,9 C 13,3 C 12,8 C 99 % 1018,5 hPa 0,0 l/m 0 min 0 min 47 W/m 6,4 km/h (2 Bft) 100,00 %
19.10.2021 12:30 13,9 C 13,3 C 12,8 C 99 % 1018,6 hPa 0,2 l/m 0 min 0 min 42 W/m 3,2 km/h (1 Bft) 100,00 %
19.10.2021 12:32 13,9 C 13,3 C 12,8 C 99 % 1018,6 hPa 0,0 l/m 0 min 0 min 37 W/m 3,2 km/h (1 Bft) 100,00 %
19.10.2021 12:34 13,9 C 13,3 C 12,8 C 99 % 1018,6 hPa 0,0 l/m 0 min 0 min 37 W/m 3,2 km/h (1 Bft) 97,87 %
19.10.2021 12:36 13,9 C 13,3 C 13,4 C 99 % 1018,6 hPa 0,0 l/m 0 min 0 min 33 W/m 6,4 km/h (2 Bft) 100,00 %
19.10.2021 12:38 14,0 C 13,3 C 12,8 C 99 % 1018,6 hPa 0,0 l/m 0 min 0 min 38 W/m 3,2 km/h (1 Bft) 100,00 %
19.10.2021 12:40 14,0 C 13,3 C 13,4 C 99 % 1018,5 hPa 0,0 l/m 0 min 0 min 38 W/m 6,4 km/h (2 Bft) 100,00 %
19.10.2021 12:42 14,0 C 13,3 C 13,4 C 99 % 1018,6 hPa 0,0 l/m 0 min 0 min 41 W/m 3,2 km/h (1 Bft) 100,00 %
19.10.2021 12:44 14,0 C 13,3 C 13,4 C 99 % 1018,6 hPa 0,0 l/m 0 min 0 min 46 W/m 3,2 km/h (1 Bft) 100,00 %
19.10.2021 12:46 14,1 C 13,3 C 13,4 C 99 % 1018,6 hPa 0,0 l/m 0 min 0 min 52 W/m 6,4 km/h (2 Bft) 97,87 %
19.10.2021 12:48 14,1 C 13,3 C 13,4 C 99 % 1018,6 hPa 0,0 l/m 0 min 0 min 60 W/m 3,2 km/h (1 Bft) 100,00 %
19.10.2021 12:50 14,2 C 13,9 C 13,4 C 99 % 1018,5 hPa 0,0 l/m 0 min 0 min 68 W/m 6,4 km/h (2 Bft) 100,00 %
19.10.2021 12:52 14,2 C 13,9 C 13,4 C 99 % 1018,5 hPa 0,0 l/m 0 min 0 min 68 W/m 6,4 km/h (2 Bft) 100,00 %
19.10.2021 12:54 14,2 C 13,9 C 13,4 C 99 % 1018,5 hPa 0,0 l/m 0 min 0 min 70 W/m 3,2 km/h (1 Bft) 100,00 %
19.10.2021 12:56 14,2 C 13,9 C 13,4 C 99 % 1018,5 hPa 0,0 l/m 0 min 0 min 73 W/m 3,2 km/h (1 Bft) 100,00 %
19.10.2021 12:58 14,2 C 13,9 C 13,4 C 99 % 1018,5 hPa 0,0 l/m 0 min 0 min 84 W/m 6,4 km/h (2 Bft) 100,00 %
19.10.2021 13:00 14,2 C 13,9 C 13,4 C 99 % 1018,4 hPa 0,0 l/m 0 min 0 min 95 W/m 6,4 km/h (2 Bft) 100,00 %
19.10.2021 13:02 14,3 C 13,9 C 13,4 C 99 % 1018,4 hPa 0,0 l/m 0 min 0 min 74 W/m 6,4 km/h (2 Bft) 100,00 %
19.10.2021 13:04 14,4 C 13,9 C 13,4 C 99 % 1018,3 hPa 0,0 l/m 0 min 0 min 80 W/m 3,2 km/h (1 Bft) 100,00 %
19.10.2021 13:06 14,4 C 13,9 C 13,9 C 99 % 1018,3 hPa 0,0 l/m 0 min 0 min 91 W/m 6,4 km/h (2 Bft) 100,00 %
19.10.2021 13:08 14,5 C 13,9 C 13,9 C 99 % 1018,3 hPa 0,0 l/m 0 min 0 min 97 W/m 6,4 km/h (2 Bft) 100,00 %
19.10.2021 13:10 14,5 C 14,4 C 13,9 C 99 % 1018,3 hPa 0,0 l/m 0 min 0 min 109 W/m 6,4 km/h (2 Bft) 100,00 %
19.10.2021 13:12 14,6 C 14,4 C 13,9 C 99 % 1018,3 hPa 0,0 l/m 0 min 0 min 113 W/m 6,4 km/h (2 Bft) 97,87 %
19.10.2021 13:14 14,6 C 14,4 C 13,9 C 99 % 1018,3 hPa 0,0 l/m 0 min 0 min 123 W/m 6,4 km/h (2 Bft) 97,87 %
19.10.2021 13:16 14,6 C 14,4 C 13,9 C 99 % 1018,3 hPa 0,0 l/m 0 min 0 min 99 W/m 3,2 km/h (1 Bft) 100,00 %
19.10.2021 13:18 14,7 C 14,4 C 13,9 C 99 % 1018,3 hPa 0,0 l/m 0 min 0 min 92 W/m 3,2 km/h (1 Bft) 100,00 %
19.10.2021 13:20 14,8 C 14,4 C 13,9 C 99 % 1018,3 hPa 0,0 l/m 0 min 0 min 100 W/m 6,4 km/h (2 Bft) 100,00 %
19.10.2021 13:22 14,8 C 14,4 C 13,9 C 99 % 1018,3 hPa 0,0 l/m 0 min 0 min 94 W/m 3,2 km/h (1 Bft) 100,00 %
19.10.2021 13:24 14,9 C 14,4 C 13,9 C 99 % 1018,2 hPa 0,0 l/m 0 min 0 min 100 W/m 3,2 km/h (1 Bft) 97,87 %
19.10.2021 13:26 14,9 C 14,4 C 13,9 C 99 % 1018,2 hPa 0,0 l/m 0 min 0 min 104 W/m 6,4 km/h (2 Bft) 97,87 %
19.10.2021 13:28 15,0 C 15,0 C 13,9 C 99 % 1018,3 hPa 0,0 l/m 0 min 0 min 107 W/m 3,2 km/h (1 Bft) 97,83 %
19.10.2021 13:30 15,0 C 15,0 C 14,5 C 99 % 1018,2 hPa 0,0 l/m 0 min 0 min 101 W/m 3,2 km/h (1 Bft) 97,87 %
19.10.2021 13:32 15,1 C 15,0 C 14,5 C 99 % 1018,3 hPa 0,0 l/m 0 min 0 min 102 W/m 3,2 km/h (1 Bft) 97,87 %
19.10.2021 13:34 15,1 C 15,0 C 14,5 C 99 % 1018,3 hPa 0,0 l/m 0 min 0 min 102 W/m 6,4 km/h (2 Bft) 95,74 %
19.10.2021 13:36 15,2 C 15,0 C 14,5 C 99 % 1018,3 hPa 0,0 l/m 0 min 0 min 92 W/m 9,7 km/h (2 Bft) 97,87 %
19.10.2021 13:38 15,3 C 15,0 C 14,5 C 99 % 1018,2 hPa 0,0 l/m 0 min 0 min 100 W/m 12,9 km/h (3 Bft) 93,62 %
19.10.2021 13:40 15,4 C 15,0 C 14,5 C 99 % 1018,2 hPa 0,0 l/m 0 min 0 min 89 W/m 9,7 km/h (2 Bft) 91,30 %
19.10.2021 13:42 15,4 C 15,0 C 14,5 C 99 % 1018,2 hPa 0,0 l/m 0 min 0 min 72 W/m 9,7 km/h (2 Bft) 89,36 %
19.10.2021 13:44 15,5 C 15,0 C 14,5 C 99 % 1018,2 hPa 0,0 l/m 0 min 0 min 67 W/m 12,9 km/h (3 Bft) 91,49 %
19.10.2021 13:46 15,6 C 15,6 C 14,5 C 99 % 1018,1 hPa 0,0 l/m 0 min 0 min 73 W/m 12,9 km/h (3 Bft) 95,74 %
19.10.2021 13:48 15,7 C 15,6 C 14,5 C 99 % 1018,0 hPa 0,0 l/m 0 min 0 min 87 W/m 6,4 km/h (2 Bft) 93,62 %
19.10.2021 13:50 15,8 C 15,6 C 15,0 C 99 % 1018,0 hPa 0,0 l/m 0 min 0 min 83 W/m 22,5 km/h (4 Bft) 93,62 %
19.10.2021 13:52 15,8 C 15,6 C 15,0 C 99 % 1018,0 hPa 0,0 l/m 0 min 0 min 83 W/m 16,1 km/h (3 Bft) 93,48 %
19.10.2021 13:54 15,9 C 15,6 C 15,0 C 99 % 1017,9 hPa 0,0 l/m 0 min 0 min 91 W/m 16,1 km/h (3 Bft) 93,62 %
19.10.2021 13:56 15,9 C 15,6 C 15,0 C 99 % 1017,9 hPa 0,0 l/m 0 min 0 min 84 W/m 9,7 km/h (2 Bft) 91,49 %
19.10.2021 13:58 15,9 C 15,6 C 15,0 C 99 % 1017,9 hPa 0,0 l/m 0 min 0 min 91 W/m 12,9 km/h (3 Bft) 91,49 %
19.10.2021 14:00 16,0 C 15,6 C 15,0 C 99 % 1017,9 hPa 0,0 l/m 0 min 0 min 88 W/m 9,7 km/h (2 Bft) 93,62 %
19.10.2021 14:02 16,0 C 15,6 C 15,0 C 99 % 1017,9 hPa 0,0 l/m 0 min 0 min 91 W/m 9,7 km/h (2 Bft) 93,62 %
19.10.2021 14:04 16,0 C 15,6 C 15,0 C 99 % 1017,9 hPa 0,0 l/m 0 min 0 min 90 W/m 6,4 km/h (2 Bft) 93,48 %
19.10.2021 14:06 16,0 C 15,6 C 15,0 C 99 % 1017,8 hPa 0,0 l/m 0 min 0 min 87 W/m 6,4 km/h (2 Bft) 93,62 %
19.10.2021 14:08 16,1 C 15,6 C 15,0 C 99 % 1017,9 hPa 0,0 l/m 0 min 0 min 91 W/m 6,4 km/h (2 Bft) 91,49 %
19.10.2021 14:10 16,1 C 16,1 C 15,0 C 99 % 1017,9 hPa 0,0 l/m 0 min 0 min 99 W/m 12,9 km/h (3 Bft) 93,62 %
19.10.2021 14:12 16,1 C 16,1 C 15,0 C 99 % 1017,8 hPa 0,0 l/m 0 min 0 min 99 W/m 6,4 km/h (2 Bft) 95,74 %
19.10.2021 14:14 16,2 C 16,1 C 15,0 C 99 % 1017,8 hPa 0,0 l/m 0 min 0 min 101 W/m 9,7 km/h (2 Bft) 95,74 %
19.10.2021 14:16 16,2 C 16,1 C 15,0 C 99 % 1017,8 hPa 0,0 l/m 0 min 0 min 81 W/m 16,1 km/h (3 Bft) 95,65 %
19.10.2021 14:18 16,3 C 16,1 C 15,0 C 99 % 1017,8 hPa 0,0 l/m 0 min 0 min 64 W/m 12,9 km/h (3 Bft) 95,74 %
19.10.2021 14:20 16,3 C 16,1 C 15,0 C 99 % 1017,8 hPa 0,0 l/m 0 min 0 min 63 W/m 9,7 km/h (2 Bft) 95,74 %
19.10.2021 14:22 16,3 C 16,1 C 15,0 C 99 % 1017,8 hPa 0,0 l/m 0 min 0 min 70 W/m 6,4 km/h (2 Bft) 97,87 %
19.10.2021 14:24 16,3 C 16,1 C 15,0 C 99 % 1017,7 hPa 0,0 l/m 0 min 0 min 72 W/m 9,7 km/h (2 Bft) 97,87 %
19.10.2021 14:26 16,4 C 16,1 C 15,6 C 99 % 1017,7 hPa 0,0 l/m 0 min 2 min 85 W/m 16,1 km/h (3 Bft) 97,87 %
19.10.2021 14:28 16,4 C 16,1 C 15,6 C 99 % 1017,7 hPa 0,0 l/m 0 min 0 min 90 W/m 19,3 km/h (3 Bft) 100,00 %
19.10.2021 14:30 16,5 C 16,1 C 15,6 C 99 % 1017,7 hPa 0,0 l/m 0 min 0 min 77 W/m 19,3 km/h (3 Bft) 97,87 %
19.10.2021 14:32 16,5 C 16,1 C 15,6 C 99 % 1017,7 hPa 0,0 l/m 0 min 0 min 82 W/m 12,9 km/h (3 Bft) 100,00 %
19.10.2021 14:34 16,5 C 16,1 C 15,6 C 99 % 1017,7 hPa 0,0 l/m 0 min 0 min 93 W/m 19,3 km/h (3 Bft) 100,00 %
19.10.2021 14:36 16,5 C 16,1 C 15,6 C 99 % 1017,7 hPa 0,0 l/m 0 min 0 min 84 W/m 16,1 km/h (3 Bft) 100,00 %
19.10.2021 14:38 16,6 C 16,1 C 15,6 C 100 % 1017,7 hPa 0,0 l/m 0 min 2 min 77 W/m 9,7 km/h (2 Bft) 100,00 %
19.10.2021 14:40 16,6 C 16,1 C 15,6 C 100 % 1017,7 hPa 0,0 l/m 0 min 0 min 88 W/m 12,9 km/h (3 Bft) 100,00 %
19.10.2021 14:42 16,6 C 16,1 C 15,6 C 99 % 1017,7 hPa 0,0 l/m 0 min 0 min 83 W/m 16,1 km/h (3 Bft) 100,00 %
19.10.2021 14:44 16,6 C 16,1 C 15,6 C 99 % 1017,6 hPa 0,0 l/m 0 min 0 min 63 W/m 19,3 km/h (3 Bft) 100,00 %
19.10.2021 14:46 16,7 C 16,1 C 15,6 C 99 % 1017,6 hPa 0,0 l/m 0 min 0 min 57 W/m 22,5 km/h (4 Bft) 100,00 %
19.10.2021 14:48 16,7 C 16,1 C 15,6 C 99 % 1017,6 hPa 0,0 l/m 0 min 0 min 53 W/m 12,9 km/h (3 Bft) 100,00 %
19.10.2021 14:50 16,7 C 16,1 C 15,6 C 99 % 1017,6 hPa 0,0 l/m 0 min 0 min 55 W/m 16,1 km/h (3 Bft) 97,83 %
19.10.2021 14:52 16,7 C 16,1 C 15,6 C 99 % 1017,6 hPa 0,0 l/m 0 min 0 min 56 W/m 16,1 km/h (3 Bft) 100,00 %
19.10.2021 14:54 16,7 C 16,1 C 15,6 C 99 % 1017,5 hPa 0,0 l/m 0 min 0 min 76 W/m 12,9 km/h (3 Bft) 100,00 %
19.10.2021 14:56 16,7 C 16,1 C 15,6 C 99 % 1017,5 hPa 0,0 l/m 0 min 0 min 72 W/m 19,3 km/h (3 Bft) 100,00 %
19.10.2021 14:58 16,7 C 16,1 C 15,6 C 99 % 1017,5 hPa 0,0 l/m 0 min 0 min 68 W/m 16,1 km/h (3 Bft) 100,00 %
19.10.2021 15:00 16,7 C 16,1 C 15,6 C 99 % 1017,6 hPa 0,0 l/m 0 min 0 min 69 W/m 16,1 km/h (3 Bft) 97,87 %
19.10.2021 15:02 16,8 C 16,1 C 15,6 C 99 % 1017,5 hPa 0,0 l/m 0 min 0 min 79 W/m 16,1 km/h (3 Bft) 97,83 %
19.10.2021 15:04 16,8 C 16,1 C 15,6 C 99 % 1017,5 hPa 0,0 l/m 0 min 0 min 66 W/m 16,1 km/h (3 Bft) 100,00 %
19.10.2021 15:06 16,8 C 16,1 C 15,6 C 99 % 1017,5 hPa 0,0 l/m 0 min 0 min 64 W/m 19,3 km/h (3 Bft) 100,00 %
19.10.2021 15:08 16,8 C 16,1 C 15,6 C 99 % 1017,5 hPa 0,0 l/m 0 min 0 min 64 W/m 12,9 km/h (3 Bft) 100,00 %
19.10.2021 15:10 16,8 C 16,7 C 15,6 C 99 % 1017,4 hPa 0,0 l/m 0 min 0 min 67 W/m 22,5 km/h (4 Bft) 100,00 %
19.10.2021 15:12 16,8 C 16,7 C 15,6 C 99 % 1017,4 hPa 0,0 l/m 0 min 0 min 58 W/m 19,3 km/h (3 Bft) 100,00 %
19.10.2021 15:14 16,8 C 16,7 C 15,6 C 99 % 1017,4 hPa 0,0 l/m 0 min 0 min 54 W/m 19,3 km/h (3 Bft) 100,00 %
19.10.2021 15:16 16,8 C 16,7 C 15,6 C 99 % 1017,5 hPa 0,0 l/m 0 min 0 min 47 W/m 22,5 km/h (4 Bft) 100,00 %
19.10.2021 15:18 16,8 C 16,7 C 15,6 C 99 % 1017,5 hPa 0,0 l/m 0 min 0 min 53 W/m 25,7 km/h (4 Bft) 100,00 %
19.10.2021 15:20 16,8 C 16,7 C 15,6 C 99 % 1017,4 hPa 0,0 l/m 0 min 0 min 55 W/m 19,3 km/h (3 Bft) 97,87 %
19.10.2021 15:22 16,8 C 16,7 C 15,6 C 99 % 1017,4 hPa 0,0 l/m 0 min 0 min 71 W/m 22,5 km/h (4 Bft) 100,00 %
19.10.2021 15:24 16,8 C 16,7 C 15,6 C 99 % 1017,3 hPa 0,0 l/m 0 min 0 min 81 W/m 19,3 km/h (3 Bft) 100,00 %
19.10.2021 15:26 16,9 C 16,7 C 15,6 C 99 % 1017,4 hPa 0,0 l/m 0 min 0 min 75 W/m 38,6 km/h (5 Bft) 100,00 %
19.10.2021 15:28 16,9 C 16,7 C 15,6 C 99 % 1017,3 hPa 0,0 l/m 0 min 0 min 73 W/m 22,5 km/h (4 Bft) 100,00 %
19.10.2021 15:30 16,9 C 16,7 C 15,6 C 99 % 1017,3 hPa 0,0 l/m 0 min 0 min 72 W/m 16,1 km/h (3 Bft) 100,00 %
19.10.2021 15:32 16,9 C 16,7 C 15,6 C 99 % 1017,3 hPa 0,0 l/m 0 min 0 min 63 W/m 16,1 km/h (3 Bft) 100,00 %
19.10.2021 15:34 16,9 C 16,7 C 15,6 C 99 % 1017,3 hPa 0,0 l/m 0 min 0 min 58 W/m 12,9 km/h (3 Bft) 95,65 %
19.10.2021 15:36 16,9 C 16,7 C 15,6 C 99 % 1017,3 hPa 0,0 l/m 0 min 0 min 62 W/m 9,7 km/h (2 Bft) 100,00 %
19.10.2021 15:38 16,9 C 16,7 C 15,6 C 99 % 1017,3 hPa 0,0 l/m 0 min 0 min 54 W/m 12,9 km/h (3 Bft) 100,00 %
19.10.2021 15:40 16,9 C 16,7 C 15,6 C 99 % 1017,4 hPa 0,0 l/m 0 min 0 min 46 W/m 19,3 km/h (3 Bft) 100,00 %
19.10.2021 15:42 16,9 C 16,7 C 15,6 C 99 % 1017,3 hPa 0,0 l/m 0 min 0 min 41 W/m 22,5 km/h (4 Bft) 100,00 %
19.10.2021 15:44 16,9 C 16,7 C 15,6 C 99 % 1017,3 hPa 0,0 l/m 0 min 0 min 42 W/m 12,9 km/h (3 Bft) 100,00 %
19.10.2021 15:46 17,0 C 16,7 C 15,6 C 99 % 1017,2 hPa 0,0 l/m 0 min 0 min 43 W/m 19,3 km/h (3 Bft) 95,65 %
19.10.2021 15:48 17,0 C 16,7 C 15,6 C 99 % 1017,3 hPa 0,0 l/m 0 min 0 min 39 W/m 19,3 km/h (3 Bft) 97,87 %
19.10.2021 15:50 17,0 C 16,7 C 15,6 C 99 % 1017,3 hPa 0,0 l/m 0 min 0 min 40 W/m 22,5 km/h (4 Bft) 95,74 %
19.10.2021 15:52 17,0 C 16,7 C 15,6 C 99 % 1017,3 hPa 0,0 l/m 0 min 0 min 39 W/m 22,5 km/h (4 Bft) 93,62 %
19.10.2021 15:54 17,0 C 16,7 C 15,6 C 99 % 1017,3 hPa 0,0 l/m 0 min 0 min 39 W/m 22,5 km/h (4 Bft) 100,00 %
19.10.2021 15:56 17,0 C 16,7 C 15,6 C 99 % 1017,3 hPa 0,0 l/m 0 min 0 min 38 W/m 19,3 km/h (3 Bft) 95,74 %
19.10.2021 15:58 17,0 C 16,7 C 15,6 C 99 % 1017,3 hPa 0,0 l/m 0 min 0 min 50 W/m 25,7 km/h (4 Bft) 97,83 %
19.10.2021 16:00 17,0 C 16,7 C 15,6 C 99 % 1017,2 hPa 0,0 l/m 0 min 0 min 60 W/m 6,4 km/h (2 Bft) 97,87 %
19.10.2021 16:02 17,0 C 16,7 C 15,6 C 99 % 1017,2 hPa 0,0 l/m 0 min 0 min 65 W/m 12,9 km/h (3 Bft) 95,74 %
19.10.2021 16:04 17,0 C 16,7 C 15,6 C 99 % 1017,2 hPa 0,0 l/m 0 min 0 min 69 W/m 22,5 km/h (4 Bft) 97,87 %
19.10.2021 16:06 17,1 C 16,7 C 16,1 C 99 % 1017,2 hPa 0,0 l/m 0 min 0 min 84 W/m 25,7 km/h (4 Bft) 95,74 %
19.10.2021 16:08 17,1 C 16,7 C 15,6 C 99 % 1017,2 hPa 0,0 l/m 0 min 0 min 61 W/m 9,7 km/h (2 Bft) 93,62 %
19.10.2021 16:10 17,1 C 16,7 C 15,6 C 99 % 1017,2 hPa 0,0 l/m 0 min 0 min 50 W/m 19,3 km/h (3 Bft) 95,65 %
19.10.2021 16:12 17,1 C 16,7 C 16,1 C 99 % 1017,2 hPa 0,0 l/m 0 min 0 min 46 W/m 12,9 km/h (3 Bft) 95,74 %
19.10.2021 16:14 17,1 C 16,7 C 15,6 C 99 % 1017,1 hPa 0,0 l/m 0 min 0 min 51 W/m 16,1 km/h (3 Bft) 95,74 %
19.10.2021 16:16 17,1 C 16,7 C 16,1 C 99 % 1017,2 hPa 0,0 l/m 0 min 0 min 72 W/m 25,7 km/h (4 Bft) 93,62 %
19.10.2021 16:18 17,1 C 16,7 C 16,1 C 99 % 1017,1 hPa 0,0 l/m 0 min 0 min 85 W/m 16,1 km/h (3 Bft) 100,00 %
19.10.2021 16:20 17,1 C 16,7 C 16,1 C 99 % 1017,2 hPa 0,0 l/m 0 min 0 min 60 W/m 6,4 km/h (2 Bft) 96,61 %
19.10.2021 16:22 17,1 C 16,7 C 16,1 C 99 % 1017,2 hPa 0,0 l/m 0 min 0 min 38 W/m 29,0 km/h (5 Bft) 97,96 %
19.10.2021 16:24 17,1 C 16,7 C 15,6 C 99 % 1017,1 hPa 0,0 l/m 0 min 0 min 52 W/m 12,9 km/h (3 Bft) 97,87 %
19.10.2021 16:26 17,1 C 16,7 C 16,1 C 99 % 1017,1 hPa 0,0 l/m 0 min 0 min 58 W/m 25,7 km/h (4 Bft) 97,14 %
19.10.2021 16:28 17,2 C 16,7 C 15,6 C 98 % 1017,1 hPa 0,0 l/m 0 min 0 min 47 W/m 16,1 km/h (3 Bft) 95,74 %
19.10.2021 16:30 17,2 C 16,7 C 16,1 C 98 % 1017,0 hPa 0,0 l/m 0 min 0 min 49 W/m 22,5 km/h (4 Bft) 95,74 %
19.10.2021 16:32 17,2 C 16,7 C 15,6 C 99 % 1017,0 hPa 0,0 l/m 0 min 0 min 56 W/m 19,3 km/h (3 Bft) 94,83 %
19.10.2021 16:34 17,2 C 16,7 C 16,1 C 98 % 1017,0 hPa 0,0 l/m 0 min 0 min 63 W/m 19,3 km/h (3 Bft) 95,74 %
19.10.2021 16:36 17,3 C 16,7 C 16,1 C 98 % 1017,0 hPa 0,0 l/m 0 min 0 min 56 W/m 22,5 km/h (4 Bft) 93,62 %
19.10.2021 16:38 17,3 C 16,7 C 16,1 C 98 % 1017,0 hPa 0,0 l/m 0 min 0 min 30 W/m 16,1 km/h (3 Bft) 95,74 %
19.10.2021 16:40 17,3 C 16,7 C 15,6 C 98 % 1017,0 hPa 0,0 l/m 0 min 0 min 35 W/m 16,1 km/h (3 Bft) 94,29 %
19.10.2021 16:42 17,3 C 16,7 C 16,1 C 98 % 1017,0 hPa 0,0 l/m 0 min 0 min 41 W/m 16,1 km/h (3 Bft) 96,61 %
19.10.2021 16:44 17,3 C 16,7 C 16,1 C 98 % 1017,0 hPa 0,0 l/m 0 min 0 min 50 W/m 16,1 km/h (3 Bft) 94,29 %
19.10.2021 16:46 17,3 C 16,7 C 16,1 C 98 % 1017,0 hPa 0,0 l/m 0 min 0 min 48 W/m 19,3 km/h (3 Bft) 96,55 %
19.10.2021 16:48 17,3 C 16,7 C 16,1 C 98 % 1017,0 hPa 0,0 l/m 0 min 0 min 47 W/m 16,1 km/h (3 Bft) 94,29 %
19.10.2021 16:50 17,3 C 16,7 C 16,1 C 98 % 1016,9 hPa 0,0 l/m 0 min 0 min 49 W/m 19,3 km/h (3 Bft) 94,92 %
19.10.2021 16:52 17,3 C 16,7 C 16,1 C 98 % 1016,9 hPa 0,0 l/m 0 min 0 min 50 W/m 12,9 km/h (3 Bft) 97,14 %
19.10.2021 16:54 17,3 C 16,7 C 15,6 C 97 % 1016,9 hPa 0,0 l/m 0 min 0 min 61 W/m 19,3 km/h (3 Bft) 96,61 %
19.10.2021 16:56 17,4 C 16,7 C 16,1 C 97 % 1016,8 hPa 0,0 l/m 0 min 0 min 58 W/m 32,2 km/h (5 Bft) 97,14 %
19.10.2021 16:58 17,4 C 16,7 C 16,1 C 97 % 1016,8 hPa 0,0 l/m 0 min 0 min 53 W/m 25,7 km/h (4 Bft) 95,74 %
19.10.2021 17:00 17,4 C 16,7 C 16,1 C 97 % 1016,8 hPa 0,0 l/m 0 min 0 min 56 W/m 12,9 km/h (3 Bft) 97,83 %
19.10.2021 17:02 17,4 C 17,2 C 16,1 C 97 % 1016,8 hPa 0,0 l/m 0 min 0 min 66 W/m 16,1 km/h (3 Bft) 97,87 %
19.10.2021 17:04 17,4 C 17,2 C 16,1 C 97 % 1016,8 hPa 0,0 l/m 0 min 0 min 69 W/m 19,3 km/h (3 Bft) 98,31 %
19.10.2021 17:06 17,5 C 17,2 C 16,1 C 97 % 1016,8 hPa 0,0 l/m 0 min 0 min 44 W/m 12,9 km/h (3 Bft) 97,87 %
19.10.2021 17:08 17,5 C 17,2 C 16,1 C 97 % 1016,8 hPa 0,0 l/m 0 min 0 min 49 W/m 12,9 km/h (3 Bft) 97,83 %
19.10.2021 17:10 17,5 C 17,2 C 16,1 C 97 % 1016,7 hPa 0,0 l/m 0 min 0 min 78 W/m 12,9 km/h (3 Bft) 97,22 %
19.10.2021 17:12 17,5 C 17,2 C 16,1 C 97 % 1016,7 hPa 0,0 l/m 0 min 0 min 58 W/m 19,3 km/h (3 Bft) 97,83 %
19.10.2021 17:14 17,5 C 17,2 C 16,1 C 97 % 1016,8 hPa 0,0 l/m 0 min 0 min 42 W/m 12,9 km/h (3 Bft) 97,87 %
19.10.2021 17:16 17,5 C 17,2 C 16,1 C 97 % 1016,8 hPa 0,0 l/m 0 min 0 min 48 W/m 16,1 km/h (3 Bft) 97,87 %
19.10.2021 17:18 17,5 C 17,2 C 16,1 C 97 % 1016,8 hPa 0,0 l/m 0 min 0 min 60 W/m 19,3 km/h (3 Bft) 100,00 %
19.10.2021 17:20 17,5 C 17,2 C 16,1 C 96 % 1016,7 hPa 0,0 l/m 0 min 0 min 60 W/m 6,4 km/h (2 Bft) 100,00 %
19.10.2021 17:22 17,6 C 17,2 C 16,1 C 96 % 1016,8 hPa 0,0 l/m 0 min 0 min 62 W/m 16,1 km/h (3 Bft) 100,00 %
19.10.2021 17:24 17,6 C 17,2 C 16,1 C 96 % 1016,7 hPa 0,0 l/m 2 min 0 min 85 W/m 6,4 km/h (2 Bft) 100,00 %
19.10.2021 17:26 17,6 C 17,2 C 16,1 C 96 % 1016,7 hPa 0,0 l/m 2 min 0 min 91 W/m 16,1 km/h (3 Bft) 100,00 %
19.10.2021 17:28 17,6 C 17,2 C 16,1 C 96 % 1016,7 hPa 0,0 l/m 0 min 0 min 59 W/m 22,5 km/h (4 Bft) 97,87 %
19.10.2021 17:30 17,6 C 17,2 C 16,1 C 96 % 1016,7 hPa 0,0 l/m 0 min 0 min 42 W/m 19,3 km/h (3 Bft) 100,00 %
19.10.2021 17:32 17,6 C 17,2 C 16,1 C 96 % 1016,7 hPa 0,0 l/m 0 min 0 min 53 W/m 19,3 km/h (3 Bft) 100,00 %
19.10.2021 17:34 17,6 C 17,2 C 16,1 C 96 % 1016,7 hPa 0,0 l/m 0 min 0 min 51 W/m 19,3 km/h (3 Bft) 100,00 %
19.10.2021 17:36 17,6 C 17,2 C 16,1 C 96 % 1016,7 hPa 0,0 l/m 0 min 0 min 46 W/m 19,3 km/h (3 Bft) 100,00 %
19.10.2021 17:38 17,7 C 17,2 C 16,1 C 96 % 1016,7 hPa 0,0 l/m 0 min 0 min 35 W/m 19,3 km/h (3 Bft) 100,00 %
19.10.2021 17:40 17,6 C 17,2 C 16,1 C 96 % 1016,7 hPa 0,0 l/m 0 min 0 min 26 W/m 12,9 km/h (3 Bft) 100,00 %
19.10.2021 17:42 17,7 C 17,2 C 16,1 C 96 % 1016,7 hPa 0,0 l/m 0 min 0 min 29 W/m 16,1 km/h (3 Bft) 100,00 %
19.10.2021 17:44 17,7 C 17,2 C 16,1 C 96 % 1016,8 hPa 0,0 l/m 0 min 0 min 29 W/m 12,9 km/h (3 Bft) 100,00 %
19.10.2021 17:46 17,7 C 16,7 C 16,1 C 95 % 1016,7 hPa 0,0 l/m 0 min 0 min 21 W/m 16,1 km/h (3 Bft) 100,00 %
19.10.2021 17:48 17,7 C 16,7 C 16,1 C 95 % 1016,8 hPa 0,0 l/m 0 min 0 min 14 W/m 9,7 km/h (2 Bft) 97,87 %
19.10.2021 17:50 17,6 C 16,7 C 16,1 C 95 % 1016,7 hPa 0,0 l/m 0 min 0 min 12 W/m 19,3 km/h (3 Bft) 97,87 %
19.10.2021 17:52 17,6 C 16,7 C 16,1 C 95 % 1016,8 hPa 0,0 l/m 0 min 0 min 11 W/m 16,1 km/h (3 Bft) 97,87 %
19.10.2021 17:54 17,6 C 16,7 C 16,1 C 95 % 1016,7 hPa 0,0 l/m 0 min 0 min 11 W/m 16,1 km/h (3 Bft) 97,87 %
19.10.2021 17:56 17,6 C 16,7 C 16,1 C 95 % 1016,7 hPa 0,0 l/m 0 min 0 min 11 W/m 19,3 km/h (3 Bft) 95,74 %
19.10.2021 17:58 17,6 C 16,7 C 16,1 C 95 % 1016,8 hPa 0,0 l/m 0 min 0 min 11 W/m 22,5 km/h (4 Bft) 97,83 %
19.10.2021 18:00 17,6 C 16,7 C 16,1 C 95 % 1016,8 hPa 0,0 l/m 0 min 0 min 8 W/m 25,7 km/h (4 Bft) 97,87 %
19.10.2021 18:02 17,6 C 17,2 C 15,6 C 95 % 1016,7 hPa 0,0 l/m 0 min 0 min 8 W/m 22,5 km/h (4 Bft) 97,87 %
19.10.2021 18:04 17,6 C 16,7 C 15,6 C 95 % 1016,7 hPa 0,0 l/m 0 min 0 min 7 W/m 25,7 km/h (4 Bft) 97,62 %
19.10.2021 18:08 17,6 C 16,7 C 15,6 C 94 % 1016,6 hPa 0,0 l/m 0 min 0 min 6 W/m 25,7 km/h (4 Bft) 98,02 %
19.10.2021 18:10 17,6 C 16,7 C 15,6 C 94 % 1016,6 hPa 0,0 l/m 0 min 0 min 5 W/m 22,5 km/h (4 Bft) 97,87 %
19.10.2021 18:12 17,6 C 16,7 C 15,6 C 94 % 1016,5 hPa 0,0 l/m 0 min 0 min 7 W/m 22,5 km/h (4 Bft) 97,83 %
19.10.2021 18:14 17,6 C 16,7 C 15,6 C 94 % 1016,5 hPa 0,0 l/m 0 min 0 min 8 W/m 19,3 km/h (3 Bft) 97,87 %
19.10.2021 18:16 17,6 C 16,7 C 15,6 C 94 % 1016,5 hPa 0,0 l/m 0 min 0 min 10 W/m 25,7 km/h (4 Bft) 95,74 %
19.10.2021 18:18 17,6 C 16,7 C 15,6 C 94 % 1016,5 hPa 0,0 l/m 0 min 0 min 11 W/m 22,5 km/h (4 Bft) 97,87 %
19.10.2021 18:20 17,6 C 16,7 C 15,6 C 94 % 1016,5 hPa 0,0 l/m 0 min 0 min 11 W/m 19,3 km/h (3 Bft) 97,87 %
19.10.2021 18:22 17,5 C 16,7 C 15,6 C 94 % 1016,5 hPa 0,0 l/m 0 min 0 min 9 W/m 22,5 km/h (4 Bft) 97,87 %
19.10.2021 18:24 17,5 C 16,7 C 15,6 C 94 % 1016,5 hPa 0,0 l/m 0 min 0 min 8 W/m 16,1 km/h (3 Bft) 100,00 %
19.10.2021 18:26 17,5 C 16,7 C 15,6 C 94 % 1016,5 hPa 0,0 l/m 0 min 0 min 7 W/m 22,5 km/h (4 Bft) 100,00 %
19.10.2021 18:28 17,4 C 16,7 C 15,6 C 94 % 1016,6 hPa 0,0 l/m 0 min 0 min 5 W/m 22,5 km/h (4 Bft) 97,87 %
19.10.2021 18:30 17,4 C 16,7 C 15,6 C 94 % 1016,5 hPa 0,0 l/m 0 min 0 min 5 W/m 16,1 km/h (3 Bft) 100,00 %
19.10.2021 18:32 17,4 C 16,7 C 15,6 C 94 % 1016,5 hPa 0,0 l/m 0 min 0 min 5 W/m 22,5 km/h (4 Bft) 100,00 %
19.10.2021 18:34 17,3 C 16,7 C 15,6 C 94 % 1016,5 hPa 0,0 l/m 0 min 0 min 0 W/m 19,3 km/h (3 Bft) 100,00 %
19.10.2021 18:36 17,3 C 16,7 C 15,6 C 94 % 1016,6 hPa 0,0 l/m 0 min 0 min 0 W/m 19,3 km/h (3 Bft) 100,00 %
19.10.2021 18:38 17,3 C 16,7 C 15,6 C 94 % 1016,6 hPa 0,0 l/m 0 min 0 min 0 W/m 32,2 km/h (5 Bft) 100,00 %
19.10.2021 18:40 17,3 C 16,7 C 15,6 C 94 % 1016,6 hPa 0,0 l/m 0 min 0 min 0 W/m 19,3 km/h (3 Bft) 100,00 %
19.10.2021 18:42 17,3 C 16,7 C 15,6 C 94 % 1016,6 hPa 0,0 l/m 0 min 0 min 0 W/m 25,7 km/h (4 Bft) 100,00 %
19.10.2021 18:44 17,2 C 16,1 C 15,6 C 94 % 1016,6 hPa 0,0 l/m 0 min 0 min 0 W/m 16,1 km/h (3 Bft) 100,00 %
19.10.2021 18:46 17,2 C 16,1 C 15,6 C 94 % 1016,6 hPa 0,0 l/m 0 min 0 min 0 W/m 19,3 km/h (3 Bft) 100,00 %
19.10.2021 18:48 17,1 C 16,1 C 15,6 C 94 % 1016,5 hPa 0,0 l/m 0 min 0 min 0 W/m 22,5 km/h (4 Bft) 100,00 %
19.10.2021 18:50 17,1 C 16,1 C 15,6 C 94 % 1016,5 hPa 0,0 l/m 0 min 0 min 0 W/m 29,0 km/h (5 Bft) 93,62 %
19.10.2021 18:52 17,1 C 16,1 C 15,6 C 94 % 1016,4 hPa 0,0 l/m 0 min 0 min 0 W/m 19,3 km/h (3 Bft) 97,87 %
19.10.2021 18:54 17,0 C 16,1 C 15,0 C 94 % 1016,4 hPa 0,0 l/m 0 min 0 min 0 W/m 19,3 km/h (3 Bft) 95,74 %
19.10.2021 18:56 17,0 C 16,1 C 15,0 C 94 % 1016,4 hPa 0,0 l/m 0 min 0 min 0 W/m 19,3 km/h (3 Bft) 97,83 %
19.10.2021 18:58 17,0 C 16,1 C 15,0 C 94 % 1016,4 hPa 0,0 l/m 0 min 0 min 0 W/m 12,9 km/h (3 Bft) 97,87 %
19.10.2021 19:00 16,9 C 15,6 C 15,0 C 94 % 1016,4 hPa 0,0 l/m 0 min 0 min 0 W/m 16,1 km/h (3 Bft) 97,87 %
19.10.2021 19:02 16,9 C 15,6 C 15,0 C 94 % 1016,4 hPa 0,0 l/m 0 min 0 min 0 W/m 6,4 km/h (2 Bft) 97,87 %
19.10.2021 19:04 16,8 C 15,6 C 15,0 C 94 % 1016,4 hPa 0,0 l/m 0 min 0 min 0 W/m 9,7 km/h (2 Bft) 97,92 %
19.10.2021 19:06 16,8 C 15,6 C 15,0 C 94 % 1016,4 hPa 0,0 l/m 0 min 0 min 0 W/m 3,2 km/h (1 Bft) 95,74 %
19.10.2021 19:08 16,8 C 15,6 C 15,0 C 94 % 1016,4 hPa 0,0 l/m 0 min 0 min 0 W/m 19,3 km/h (3 Bft) 97,83 %
19.10.2021 19:10 16,7 C 15,6 C 15,0 C 94 % 1016,4 hPa 0,0 l/m 0 min 0 min 0 W/m 16,1 km/h (3 Bft) 95,74 %
19.10.2021 19:12 16,7 C 15,6 C 15,0 C 94 % 1016,4 hPa 0,0 l/m 0 min 0 min 0 W/m 12,9 km/h (3 Bft) 97,87 %
19.10.2021 19:14 16,6 C 15,6 C 15,0 C 94 % 1016,5 hPa 0,0 l/m 0 min 0 min 0 W/m 12,9 km/h (3 Bft) 95,74 %
19.10.2021 19:16 16,6 C 15,6 C 14,5 C 94 % 1016,3 hPa 0,0 l/m 0 min 0 min 0 W/m 12,9 km/h (3 Bft) 97,87 %
19.10.2021 19:18 16,5 C 15,6 C 14,5 C 94 % 1016,4 hPa 0,0 l/m 0 min 0 min 0 W/m 6,4 km/h (2 Bft) 95,74 %
19.10.2021 19:20 16,5 C 15,6 C 14,5 C 94 % 1016,4 hPa 0,0 l/m 0 min 0 min 0 W/m 12,9 km/h (3 Bft) 95,65 %
19.10.2021 19:22 16,5 C 15,6 C 14,5 C 94 % 1016,4 hPa 0,0 l/m 0 min 0 min 0 W/m 6,4 km/h (2 Bft) 95,74 %
19.10.2021 19:24 16,4 C 15,6 C 14,5 C 94 % 1016,4 hPa 0,0 l/m 0 min 0 min 0 W/m 6,4 km/h (2 Bft) 93,62 %
19.10.2021 19:26 16,4 C 15,0 C 14,5 C 94 % 1016,4 hPa 0,0 l/m 0 min 0 min 0 W/m 6,4 km/h (2 Bft) 91,49 %
19.10.2021 19:28 16,4 C 15,0 C 14,5 C 94 % 1016,4 hPa 0,0 l/m 0 min 0 min 0 W/m 6,4 km/h (2 Bft) 93,62 %
19.10.2021 19:30 16,3 C 15,0 C 14,5 C 94 % 1016,4 hPa 0,0 l/m 0 min 0 min 0 W/m 6,4 km/h (2 Bft) 95,74 %
19.10.2021 19:32 16,3 C 15,0 C 14,5 C 94 % 1016,4 hPa 0,0 l/m 0 min 0 min 0 W/m 6,4 km/h (2 Bft) 91,30 %
19.10.2021 19:34 16,3 C 15,0 C 14,5 C 94 % 1016,4 hPa 0,0 l/m 0 min 0 min 0 W/m 3,2 km/h (1 Bft) 95,74 %
19.10.2021 19:36 16,2 C 15,0 C 14,5 C 94 % 1016,4 hPa 0,0 l/m 0 min 0 min 0 W/m 3,2 km/h (1 Bft) 95,74 %
19.10.2021 19:38 16,2 C 15,0 C 14,5 C 94 % 1016,5 hPa 0,0 l/m 0 min 0 min 0 W/m 12,9 km/h (3 Bft) 93,62 %
19.10.2021 19:40 16,1 C 15,0 C 14,5 C 94 % 1016,5 hPa 0,0 l/m 0 min 0 min 0 W/m 6,4 km/h (2 Bft) 95,74 %
19.10.2021 19:42 16,1 C 15,0 C 14,5 C 94 % 1016,4 hPa 0,0 l/m 0 min 0 min 0 W/m 6,4 km/h (2 Bft) 97,83 %
19.10.2021 19:44 16,1 C 15,0 C 14,5 C 94 % 1016,5 hPa 0,0 l/m 0 min 0 min 0 W/m 9,7 km/h (2 Bft) 97,87 %
19.10.2021 19:46 16,0 C 15,0 C 14,5 C 94 % 1016,4 hPa 0,0 l/m 0 min 0 min 0 W/m 3,2 km/h (1 Bft) 97,87 %
19.10.2021 19:48 16,0 C 15,0 C 14,5 C 94 % 1016,5 hPa 0,0 l/m 0 min 0 min 0 W/m 3,2 km/h (1 Bft) 97,87 %
19.10.2021 19:50 16,0 C 15,0 C 14,5 C 94 % 1016,5 hPa 0,0 l/m 0 min 0 min 0 W/m 3,2 km/h (1 Bft) 93,62 %
19.10.2021 19:52 16,0 C 15,0 C 14,5 C 94 % 1016,5 hPa 0,0 l/m 0 min 0 min 0 W/m 6,4 km/h (2 Bft) 93,62 %
19.10.2021 19:54 15,9 C 15,0 C 14,5 C 94 % 1016,5 hPa 0,0 l/m 0 min 0 min 0 W/m 12,9 km/h (3 Bft) 95,65 %
19.10.2021 19:56 15,9 C 15,0 C 13,9 C 94 % 1016,4 hPa 0,0 l/m 0 min 0 min 0 W/m 6,4 km/h (2 Bft) 95,74 %
19.10.2021 19:58 15,9 C 15,0 C 14,5 C 94 % 1016,5 hPa 0,0 l/m 0 min 0 min 0 W/m 6,4 km/h (2 Bft) 95,74 %
19.10.2021 20:00 15,9 C 15,0 C 13,9 C 94 % 1016,5 hPa 0,0 l/m 0 min 0 min 0 W/m 6,4 km/h (2 Bft) 95,74 %
19.10.2021 20:02 15,9 C 15,0 C 13,9 C 94 % 1016,4 hPa 0,0 l/m 0 min 0 min 0 W/m 6,4 km/h (2 Bft) 95,74 %
19.10.2021 20:04 15,8 C 14,4 C 13,9 C 94 % 1016,4 hPa 0,0 l/m 0 min 0 min 0 W/m 3,2 km/h (1 Bft) 93,62 %
19.10.2021 20:06 15,8 C 14,4 C 13,9 C 94 % 1016,4 hPa 0,0 l/m 0 min 0 min 0 W/m 6,4 km/h (2 Bft) 93,48 %
19.10.2021 20:08 15,8 C 14,4 C 13,9 C 94 % 1016,4 hPa 0,0 l/m 0 min 0 min 0 W/m 3,2 km/h (1 Bft) 93,62 %
19.10.2021 20:10 15,8 C 14,4 C 13,9 C 94 % 1016,4 hPa 0,0 l/m 0 min 0 min 0 W/m 12,9 km/h (3 Bft) 97,87 %
19.10.2021 20:12 15,7 C 14,4 C 13,9 C 94 % 1016,3 hPa 0,0 l/m 0 min 0 min 0 W/m 6,4 km/h (2 Bft) 97,87 %
19.10.2021 20:14 15,7 C 14,4 C 13,9 C 94 % 1016,3 hPa 0,0 l/m 0 min 0 min 0 W/m 6,4 km/h (2 Bft) 97,87 %
19.10.2021 20:16 15,6 C 14,4 C 13,9 C 94 % 1016,3 hPa 0,0 l/m 0 min 0 min 0 W/m 9,7 km/h (2 Bft) 97,87 %
19.10.2021 20:18 15,6 C 14,4 C 13,9 C 94 % 1016,3 hPa 0,0 l/m 0 min 0 min 0 W/m 6,4 km/h (2 Bft) 97,87 %
19.10.2021 20:20 15,6 C 14,4 C 13,9 C 94 % 1016,2 hPa 0,0 l/m 0 min 0 min 0 W/m 3,2 km/h (1 Bft) 97,83 %
19.10.2021 20:22 15,5 C 14,4 C 13,9 C 94 % 1016,2 hPa 0,0 l/m 0 min 0 min 0 W/m 6,4 km/h (2 Bft) 97,87 %
19.10.2021 20:24 15,5 C 14,4 C 13,9 C 94 % 1016,2 hPa 0,0 l/m 0 min 0 min 0 W/m 3,2 km/h (1 Bft) 100,00 %
19.10.2021 20:26 15,5 C 14,4 C 13,9 C 94 % 1016,2 hPa 0,0 l/m 0 min 0 min 0 W/m 6,4 km/h (2 Bft) 100,00 %
19.10.2021 20:28 15,5 C 14,4 C 13,9 C 94 % 1016,2 hPa 0,0 l/m 0 min 0 min 0 W/m 3,2 km/h (1 Bft) 97,87 %
19.10.2021 20:30 15,5 C 14,4 C 13,9 C 94 % 1016,2 hPa 0,0 l/m 0 min 0 min 0 W/m 6,4 km/h (2 Bft) 100,00 %
19.10.2021 20:32 15,5 C 14,4 C 13,9 C 94 % 1016,2 hPa 0,0 l/m 0 min 0 min 0 W/m 9,7 km/h (2 Bft) 97,87 %
19.10.2021 20:34 15,5 C 14,4 C 13,9 C 94 % 1016,2 hPa 0,0 l/m 0 min 0 min 0 W/m 6,4 km/h (2 Bft) 97,87 %
19.10.2021 20:36 15,5 C 14,4 C 13,9 C 94 % 1016,2 hPa 0,0 l/m 0 min 0 min 0 W/m 12,9 km/h (3 Bft) 100,00 %
19.10.2021 20:38 15,5 C 14,4 C 13,9 C 94 % 1016,2 hPa 0,0 l/m 0 min 0 min 0 W/m 6,4 km/h (2 Bft) 100,00 %
19.10.2021 20:40 15,5 C 14,4 C 13,9 C 95 % 1016,2 hPa 0,0 l/m 0 min 0 min 0 W/m 6,4 km/h (2 Bft) 100,00 %
19.10.2021 20:42 15,5 C 14,4 C 13,9 C 95 % 1016,2 hPa 0,0 l/m 0 min 0 min 0 W/m 6,4 km/h (2 Bft) 100,00 %
19.10.2021 20:44 15,5 C 14,4 C 13,9 C 95 % 1016,1 hPa 0,0 l/m 0 min 0 min 0 W/m 6,4 km/h (2 Bft) 100,00 %
19.10.2021 20:46 15,5 C 14,4 C 13,9 C 95 % 1016,1 hPa 0,0 l/m 0 min 0 min 0 W/m 6,4 km/h (2 Bft) 100,00 %
19.10.2021 20:48 15,5 C 14,4 C 13,9 C 95 % 1016,0 hPa 0,0 l/m 0 min 0 min 0 W/m 6,4 km/h (2 Bft) 100,00 %
19.10.2021 20:50 15,5 C 14,4 C 13,9 C 95 % 1016,0 hPa 0,0 l/m 0 min 0 min 0 W/m 6,4 km/h (2 Bft) 100,00 %
19.10.2021 20:52 15,5 C 14,4 C 13,9 C 95 % 1016,0 hPa 0,0 l/m 0 min 0 min 0 W/m 12,9 km/h (3 Bft) 100,00 %
19.10.2021 20:54 15,5 C 14,4 C 13,9 C 95 % 1015,9 hPa 0,0 l/m 0 min 0 min 0 W/m 6,4 km/h (2 Bft) 100,00 %
19.10.2021 20:56 15,5 C 14,4 C 13,9 C 95 % 1015,9 hPa 0,0 l/m 0 min 0 min 0 W/m 6,4 km/h (2 Bft) 100,00 %
19.10.2021 20:58 15,5 C 14,4 C 13,9 C 95 % 1015,8 hPa 0,0 l/m 0 min 0 min 0 W/m 12,9 km/h (3 Bft) 100,00 %
19.10.2021 21:00 15,5 C 14,4 C 13,9 C 95 % 1015,9 hPa 0,0 l/m 0 min 0 min 0 W/m 3,2 km/h (1 Bft) 100,00 %
19.10.2021 21:02 15,5 C 14,4 C 13,9 C 95 % 1015,8 hPa 0,0 l/m 0 min 0 min 0 W/m 12,9 km/h (3 Bft) 100,00 %
19.10.2021 21:04 15,4 C 14,4 C 13,9 C 95 % 1015,8 hPa 0,0 l/m 0 min 0 min 0 W/m 6,4 km/h (2 Bft) 100,00 %
19.10.2021 21:06 15,4 C 14,4 C 13,9 C 95 % 1015,8 hPa 0,0 l/m 0 min 0 min 0 W/m 6,4 km/h (2 Bft) 100,00 %
19.10.2021 21:08 15,4 C 14,4 C 13,9 C 95 % 1015,7 hPa 0,0 l/m 0 min 0 min 0 W/m 9,7 km/h (2 Bft) 100,00 %
19.10.2021 21:10 15,4 C 14,4 C 13,9 C 95 % 1015,7 hPa 0,0 l/m 0 min 0 min 0 W/m 12,9 km/h (3 Bft) 100,00 %
19.10.2021 21:12 15,4 C 14,4 C 13,9 C 95 % 1015,6 hPa 0,0 l/m 0 min 0 min 0 W/m 6,4 km/h (2 Bft) 100,00 %
19.10.2021 21:14 15,4 C 14,4 C 13,9 C 95 % 1015,6 hPa 0,0 l/m 0 min 0 min 0 W/m 6,4 km/h (2 Bft) 100,00 %
19.10.2021 21:16 15,4 C 14,4 C 13,9 C 95 % 1015,6 hPa 0,0 l/m 0 min 0 min 0 W/m 12,9 km/h (3 Bft) 100,00 %
19.10.2021 21:18 15,3 C 14,4 C 13,9 C 95 % 1015,6 hPa 0,0 l/m 0 min 0 min 0 W/m 12,9 km/h (3 Bft) 100,00 %
19.10.2021 21:20 15,3 C 14,4 C 13,9 C 95 % 1015,5 hPa 0,0 l/m 0 min 0 min 0 W/m 6,4 km/h (2 Bft) 100,00 %
19.10.2021 21:22 15,3 C 14,4 C 13,9 C 95 % 1015,6 hPa 0,0 l/m 0 min 0 min 0 W/m 6,4 km/h (2 Bft) 100,00 %
19.10.2021 21:24 15,2 C 14,4 C 13,9 C 95 % 1015,6 hPa 0,0 l/m 0 min 0 min 0 W/m 12,9 km/h (3 Bft) 100,00 %
19.10.2021 21:26 15,2 C 14,4 C 13,9 C 95 % 1015,6 hPa 0,0 l/m 0 min 0 min 0 W/m 3,2 km/h (1 Bft) 100,00 %
19.10.2021 21:28 15,2 C 14,4 C 13,9 C 95 % 1015,6 hPa 0,0 l/m 0 min 0 min 0 W/m 3,2 km/h (1 Bft) 100,00 %
19.10.2021 21:30 15,1 C 13,9 C 13,9 C 95 % 1015,5 hPa 0,0 l/m 0 min 0 min 0 W/m 12,9 km/h (3 Bft) 100,00 %
19.10.2021 21:32 15,1 C 13,9 C 13,4 C 95 % 1015,5 hPa 0,0 l/m 0 min 0 min 0 W/m 6,4 km/h (2 Bft) 100,00 %
19.10.2021 21:34 15,1 C 13,9 C 13,4 C 95 % 1015,5 hPa 0,0 l/m 0 min 0 min 0 W/m 3,2 km/h (1 Bft) 100,00 %
19.10.2021 21:36 15,0 C 13,9 C 13,4 C 95 % 1015,4 hPa 0,0 l/m 0 min 0 min 0 W/m 6,4 km/h (2 Bft) 100,00 %
19.10.2021 21:38 15,0 C 13,9 C 13,4 C 95 % 1015,4 hPa 0,0 l/m 0 min 0 min 0 W/m 6,4 km/h (2 Bft) 100,00 %
19.10.2021 21:40 15,0 C 13,9 C 13,4 C 95 % 1015,4 hPa 0,0 l/m 0 min 0 min 0 W/m 6,4 km/h (2 Bft) 100,00 %
19.10.2021 21:42 14,9 C 13,9 C 13,4 C 95 % 1015,3 hPa 0,0 l/m 0 min 0 min 0 W/m 6,4 km/h (2 Bft) 97,83 %
19.10.2021 21:44 14,9 C 13,9 C 13,4 C 95 % 1015,3 hPa 0,0 l/m 0 min 0 min 0 W/m 6,4 km/h (2 Bft) 97,87 %
19.10.2021 21:46 14,8 C 13,9 C 13,4 C 95 % 1015,3 hPa 0,0 l/m 0 min 0 min 0 W/m 6,4 km/h (2 Bft) 93,62 %
19.10.2021 21:48 14,8 C 13,9 C 13,4 C 95 % 1015,3 hPa 0,0 l/m 0 min 0 min 0 W/m 6,4 km/h (2 Bft) 95,74 %
19.10.2021 21:50 14,8 C 13,9 C 13,4 C 95 % 1015,3 hPa 0,0 l/m 0 min 0 min 0 W/m 12,9 km/h (3 Bft) 95,74 %
19.10.2021 21:52 14,7 C 13,9 C 13,4 C 95 % 1015,2 hPa 0,0 l/m 0 min 0 min 0 W/m 6,4 km/h (2 Bft) 93,48 %
19.10.2021 21:54 14,6 C 13,3 C 13,4 C 95 % 1015,2 hPa 0,0 l/m 0 min 0 min 0 W/m 12,9 km/h (3 Bft) 95,74 %
19.10.2021 21:56 14,6 C 13,3 C 13,4 C 95 % 1015,2 hPa 0,0 l/m 0 min 0 min 0 W/m 12,9 km/h (3 Bft) 95,74 %
19.10.2021 21:58 14,6 C 13,3 C 13,4 C 95 % 1015,2 hPa 0,0 l/m 0 min 0 min 0 W/m 6,4 km/h (2 Bft) 95,74 %
19.10.2021 22:00 14,5 C 13,3 C 13,4 C 95 % 1015,1 hPa 0,0 l/m 0 min 0 min 0 W/m 6,4 km/h (2 Bft) 91,49 %
19.10.2021 22:02 14,5 C 13,3 C 13,4 C 95 % 1015,1 hPa 0,0 l/m 0 min 0 min 0 W/m 6,4 km/h (2 Bft) 93,62 %
19.10.2021 22:04 14,5 C 13,9 C 13,4 C 95 % 1015,1 hPa 0,0 l/m 0 min 0 min 0 W/m 9,7 km/h (2 Bft) 91,30 %
19.10.2021 22:06 14,5 C 13,3 C 13,4 C 95 % 1015,0 hPa 0,0 l/m 0 min 0 min 0 W/m 6,4 km/h (2 Bft) 93,62 %
19.10.2021 22:08 14,4 C 13,3 C 13,4 C 95 % 1015,1 hPa 0,0 l/m 0 min 0 min 0 W/m 6,4 km/h (2 Bft) 89,36 %
19.10.2021 22:10 14,4 C 13,3 C 13,4 C 95 % 1015,1 hPa 0,0 l/m 0 min 0 min 0 W/m 6,4 km/h (2 Bft) 93,62 %
19.10.2021 22:12 14,4 C 13,3 C 13,4 C 95 % 1015,1 hPa 0,0 l/m 0 min 0 min 0 W/m 12,9 km/h (3 Bft) 93,62 %
19.10.2021 22:14 14,4 C 13,3 C 13,4 C 95 % 1015,1 hPa 0,0 l/m 0 min 0 min 0 W/m 12,9 km/h (3 Bft) 93,62 %
19.10.2021 22:16 14,3 C 13,3 C 13,4 C 95 % 1015,1 hPa 0,0 l/m 0 min 0 min 0 W/m 12,9 km/h (3 Bft) 97,83 %
19.10.2021 22:18 14,3 C 13,3 C 13,4 C 95 % 1015,1 hPa 0,0 l/m 0 min 0 min 0 W/m 6,4 km/h (2 Bft) 95,74 %
19.10.2021 22:20 14,3 C 13,3 C 13,4 C 95 % 1015,1 hPa 0,0 l/m 0 min 0 min 0 W/m 12,9 km/h (3 Bft) 93,62 %
19.10.2021 22:22 14,3 C 13,3 C 13,4 C 95 % 1015,0 hPa 0,0 l/m 0 min 0 min 0 W/m 12,9 km/h (3 Bft) 93,62 %
19.10.2021 22:24 14,3 C 13,3 C 13,4 C 95 % 1015,0 hPa 0,0 l/m 0 min 0 min 0 W/m 6,4 km/h (2 Bft) 95,74 %
19.10.2021 22:26 14,2 C 13,3 C 13,4 C 95 % 1015,0 hPa 0,0 l/m 0 min 0 min 0 W/m 6,4 km/h (2 Bft) 93,62 %
19.10.2021 22:28 14,2 C 13,3 C 13,4 C 95 % 1014,9 hPa 0,0 l/m 0 min 0 min 0 W/m 9,7 km/h (2 Bft) 93,48 %
19.10.2021 22:30 14,2 C 13,3 C 13,4 C 95 % 1015,0 hPa 0,0 l/m 0 min 0 min 0 W/m 6,4 km/h (2 Bft) 95,74 %
19.10.2021 22:32 14,2 C 13,3 C 13,4 C 95 % 1014,9 hPa 0,0 l/m 0 min 0 min 0 W/m 12,9 km/h (3 Bft) 95,74 %
19.10.2021 22:34 14,2 C 13,3 C 13,4 C 95 % 1014,9 hPa 0,0 l/m 0 min 0 min 0 W/m 6,4 km/h (2 Bft) 95,74 %
19.10.2021 22:36 14,2 C 13,3 C 13,4 C 95 % 1014,9 hPa 0,0 l/m 0 min 0 min 0 W/m 6,4 km/h (2 Bft) 97,87 %
19.10.2021 22:38 14,2 C 13,3 C 13,4 C 95 % 1014,9 hPa 0,0 l/m 0 min 0 min 0 W/m 6,4 km/h (2 Bft) 95,74 %
19.10.2021 22:40 14,2 C 13,3 C 13,4 C 95 % 1014,8 hPa 0,0 l/m 0 min 0 min 0 W/m 6,4 km/h (2 Bft) 97,83 %
19.10.2021 22:42 14,2 C 13,3 C 13,4 C 95 % 1014,8 hPa 0,0 l/m 0 min 0 min 0 W/m 6,4 km/h (2 Bft) 97,87 %
19.10.2021 22:44 14,2 C 13,3 C 13,4 C 95 % 1014,7 hPa 0,0 l/m 0 min 0 min 0 W/m 6,4 km/h (2 Bft) 97,87 %
19.10.2021 22:46 14,2 C 13,3 C 12,8 C 95 % 1014,7 hPa 0,0 l/m 0 min 0 min 0 W/m 6,4 km/h (2 Bft) 95,74 %
19.10.2021 22:48 14,1 C 13,3 C 12,8 C 95 % 1014,7 hPa 0,0 l/m 0 min 0 min 0 W/m 6,4 km/h (2 Bft) 97,87 %
19.10.2021 22:50 14,1 C 13,3 C 12,8 C 95 % 1014,7 hPa 0,0 l/m 0 min 0 min 0 W/m 9,7 km/h (2 Bft) 97,87 %
19.10.2021 22:52 14,1 C 13,3 C 12,8 C 95 % 1014,7 hPa 0,0 l/m 0 min 0 min 0 W/m 6,4 km/h (2 Bft) 100,00 %
19.10.2021 22:54 14,0 C 13,3 C 12,8 C 95 % 1014,6 hPa 0,0 l/m 0 min 0 min 0 W/m 6,4 km/h (2 Bft) 100,00 %
19.10.2021 22:56 14,0 C 13,3 C 12,8 C 95 % 1014,6 hPa 0,0 l/m 0 min 0 min 0 W/m 6,4 km/h (2 Bft) 97,87 %
19.10.2021 22:58 14,0 C 13,3 C 12,8 C 95 % 1014,6 hPa 0,0 l/m 0 min 0 min 0 W/m 6,4 km/h (2 Bft) 100,00 %
19.10.2021 23:00 14,0 C 13,3 C 12,8 C 95 % 1014,6 hPa 0,0 l/m 0 min 0 min 0 W/m 6,4 km/h (2 Bft) 100,00 %
19.10.2021 23:02 14,0 C 13,3 C 12,8 C 95 % 1014,6 hPa 0,0 l/m 0 min 0 min 0 W/m 6,4 km/h (2 Bft) 97,87 %
19.10.2021 23:04 13,9 C 13,3 C 12,8 C 95 % 1014,6 hPa 0,0 l/m 0 min 0 min 0 W/m 6,4 km/h (2 Bft) 97,83 %
19.10.2021 23:06 13,9 C 13,3 C 12,8 C 95 % 1014,6 hPa 0,0 l/m 0 min 0 min 0 W/m 12,9 km/h (3 Bft) 100,00 %
19.10.2021 23:08 13,9 C 13,3 C 12,8 C 95 % 1014,6 hPa 0,0 l/m 0 min 0 min 0 W/m 6,4 km/h (2 Bft) 100,00 %
19.10.2021 23:10 13,9 C 13,3 C 12,8 C 95 % 1014,6 hPa 0,0 l/m 0 min 0 min 0 W/m 9,7 km/h (2 Bft) 100,00 %
19.10.2021 23:12 13,9 C 13,3 C 12,8 C 95 % 1014,5 hPa 0,0 l/m 0 min 0 min 0 W/m 6,4 km/h (2 Bft) 100,00 %
19.10.2021 23:14 13,9 C 13,3 C 12,8 C 95 % 1014,5 hPa 0,0 l/m 0 min 0 min 0 W/m 12,9 km/h (3 Bft) 100,00 %
19.10.2021 23:16 13,9 C 13,3 C 12,8 C 95 % 1014,5 hPa 0,0 l/m 0 min 0 min 0 W/m 6,4 km/h (2 Bft) 100,00 %
19.10.2021 23:18 13,9 C 13,3 C 12,8 C 95 % 1014,6 hPa 0,0 l/m 0 min 0 min 0 W/m 6,4 km/h (2 Bft) 100,00 %
19.10.2021 23:20 13,8 C 13,3 C 12,8 C 95 % 1014,5 hPa 0,0 l/m 0 min 0 min 0 W/m 12,9 km/h (3 Bft) 100,00 %
19.10.2021 23:22 13,8 C 13,3 C 12,8 C 95 % 1014,5 hPa 0,0 l/m 0 min 0 min 0 W/m 6,4 km/h (2 Bft) 100,00 %
19.10.2021 23:24 13,8 C 12,8 C 12,8 C 95 % 1014,5 hPa 0,0 l/m 0 min 0 min 0 W/m 6,4 km/h (2 Bft) 100,00 %
19.10.2021 23:26 13,8 C 13,3 C 12,8 C 95 % 1014,5 hPa 0,0 l/m 0 min 0 min 0 W/m 6,4 km/h (2 Bft) 100,00 %
19.10.2021 23:28 13,8 C 12,8 C 12,8 C 95 % 1014,5 hPa 0,0 l/m 0 min 0 min 0 W/m 3,2 km/h (1 Bft) 100,00 %
19.10.2021 23:30 13,8 C 12,8 C 12,8 C 95 % 1014,5 hPa 0,0 l/m 0 min 0 min 0 W/m 6,4 km/h (2 Bft) 100,00 %
19.10.2021 23:32 13,7 C 12,8 C 12,8 C 95 % 1014,4 hPa 0,0 l/m 0 min 0 min 0 W/m 6,4 km/h (2 Bft) 97,83 %
19.10.2021 23:34 13,7 C 12,8 C 12,8 C 95 % 1014,4 hPa 0,0 l/m 0 min 0 min 0 W/m 6,4 km/h (2 Bft) 100,00 %
19.10.2021 23:36 13,7 C 12,8 C 12,8 C 95 % 1014,4 hPa 0,0 l/m 0 min 0 min 0 W/m 6,4 km/h (2 Bft) 100,00 %
19.10.2021 23:38 13,7 C 12,8 C 12,8 C 95 % 1014,4 hPa 0,0 l/m 0 min 0 min 0 W/m 3,2 km/h (1 Bft) 95,74 %
19.10.2021 23:40 13,6 C 12,8 C 12,8 C 95 % 1014,3 hPa 0,0 l/m 0 min 0 min 0 W/m 3,2 km/h (1 Bft) 95,74 %
19.10.2021 23:42 13,6 C 12,8 C 12,8 C 95 % 1014,3 hPa 0,0 l/m 0 min 0 min 0 W/m 6,4 km/h (2 Bft) 97,87 %
19.10.2021 23:44 13,6 C 12,8 C 12,8 C 95 % 1014,3 hPa 0,0 l/m 0 min 0 min 0 W/m 3,2 km/h (1 Bft) 97,83 %
19.10.2021 23:46 13,6 C 12,8 C 12,8 C 95 % 1014,2 hPa 0,0 l/m 0 min 0 min 0 W/m 6,4 km/h (2 Bft) 97,87 %
19.10.2021 23:48 13,6 C 12,8 C 12,8 C 95 % 1014,2 hPa 0,0 l/m 0 min 0 min 0 W/m 12,9 km/h (3 Bft) 97,87 %
19.10.2021 23:50 13,6 C 12,8 C 12,8 C 95 % 1014,2 hPa 0,0 l/m 0 min 0 min 0 W/m 3,2 km/h (1 Bft) 95,74 %
19.10.2021 23:52 13,6 C 12,8 C 12,8 C 95 % 1014,2 hPa 0,0 l/m 0 min 0 min 0 W/m 3,2 km/h (1 Bft) 97,87 %
19.10.2021 23:54 13,5 C 12,8 C 12,8 C 95 % 1014,2 hPa 0,0 l/m 0 min 0 min 0 W/m 3,2 km/h (1 Bft) 97,87 %
19.10.2021 23:56 13,5 C 12,8 C 12,3 C 95 % 1014,2 hPa 0,0 l/m 0 min 0 min 0 W/m 3,2 km/h (1 Bft) 97,83 %
19.10.2021 23:58 13,5 C 12,8 C 12,8 C 95 % 1014,1 hPa 0,0 l/m 0 min 0 min 0 W/m 6,4 km/h (2 Bft) 95,74 %
_ Min-Zeit 00:20 00:00 00:00 00:00 23:58 - - - - 03:00 01:52
Minimum _ 10,7 C 10,0 C 8,9 C 89 % 1014,1 hPa - - - - 3,2 km/h (1 Bft) 47,50 %
_ Max-Zeit 17:38 17:02 16:06 14:38 00:00 04:06 17:24 04:05 13:14 15:26 00:35
Maximum _ 17,7 C 17,2 C 16,1 C 100 % 1021,2 hPa 0,2 l/m 2 min 5 min 123 W/m 38,6 km/h
S (5 Bft)
100,00 %
Durchschnitt _ 13,6 C 12,9 C 12,2 C 96 % 1018,0 hPa #4,2 l/m #4 min. #3:16 h 49 W/m 10,8 km/h (2 Bft) 97,57 %
© 2021 W. Hausmann